Wetterdaten: Sonntag, 19.11.2023
Datum Zeit Temp. Aussen Temp. o. S. Temp +5cm Feuchte Auss Luftdruck Regen Sonnenschein Regendauer Solar Windben Empfang
19.11.2023 00:00 11,1 C 10,6 C 8,3 C 100 % 1010,8 hPa 0,0 l/m 0 min 0 min 0 W/m 22,5 km/h (4 Bft) 95,65 %
19.11.2023 00:02 11,1 C 10,6 C 8,3 C 100 % 1010,8 hPa 0,0 l/m 0 min 0 min 0 W/m 12,9 km/h (3 Bft) 100,00 %
19.11.2023 00:04 11,1 C 10,6 C 8,3 C 100 % 1010,8 hPa 0,0 l/m 0 min 0 min 0 W/m 16,1 km/h (3 Bft) 97,96 %
19.11.2023 00:10 11,1 C 10,6 C 8,3 C 100 % 1010,8 hPa 0,0 l/m 0 min 5 min 0 W/m 16,1 km/h (3 Bft) 96,40 %
19.11.2023 00:12 11,2 C 10,6 C 8,3 C 100 % 1010,8 hPa 0,0 l/m 0 min 2 min 0 W/m 19,3 km/h (3 Bft) 95,74 %
19.11.2023 00:16 11,2 C 10,6 C 8,3 C 100 % 1010,7 hPa 0,0 l/m 0 min 4 min 0 W/m 22,5 km/h (4 Bft) 94,62 %
19.11.2023 00:18 11,2 C 10,6 C 8,3 C 100 % 1010,7 hPa 0,0 l/m 0 min 0 min 0 W/m 16,1 km/h (3 Bft) 97,87 %
19.11.2023 00:20 11,2 C 10,6 C 8,3 C 100 % 1010,7 hPa 0,0 l/m 0 min 0 min 0 W/m 25,7 km/h (4 Bft) 97,87 %
19.11.2023 00:22 11,3 C 10,6 C 8,3 C 100 % 1010,6 hPa 0,0 l/m 0 min 0 min 0 W/m 19,3 km/h (3 Bft) 97,87 %
19.11.2023 00:24 11,3 C 10,6 C 8,3 C 100 % 1010,7 hPa 0,0 l/m 0 min 0 min 0 W/m 19,3 km/h (3 Bft) 97,87 %
19.11.2023 00:26 11,3 C 10,6 C 8,3 C 100 % 1010,5 hPa 0,0 l/m 0 min 0 min 0 W/m 16,1 km/h (3 Bft) 97,87 %
19.11.2023 00:28 11,3 C 10,6 C 8,3 C 100 % 1010,5 hPa 0,0 l/m 0 min 0 min 0 W/m 19,3 km/h (3 Bft) 95,74 %
19.11.2023 00:30 11,3 C 10,6 C 8,3 C 100 % 1010,5 hPa 0,0 l/m 0 min 0 min 0 W/m 22,5 km/h (4 Bft) 100,00 %
19.11.2023 00:32 11,4 C 10,6 C 8,9 C 100 % 1010,5 hPa 0,0 l/m 0 min 0 min 0 W/m 22,5 km/h (4 Bft) 97,87 %
19.11.2023 00:34 11,4 C 10,6 C 8,9 C 100 % 1010,4 hPa 0,0 l/m 0 min 0 min 0 W/m 22,5 km/h (4 Bft) 97,87 %
19.11.2023 00:36 11,4 C 10,6 C 8,9 C 100 % 1010,3 hPa 0,0 l/m 0 min 0 min 0 W/m 29,0 km/h (5 Bft) 95,74 %
19.11.2023 00:38 11,4 C 10,6 C 8,9 C 100 % 1010,2 hPa 0,0 l/m 0 min 0 min 0 W/m 29,0 km/h (5 Bft) 97,87 %
19.11.2023 00:40 11,4 C 10,6 C 8,9 C 100 % 1010,0 hPa 0,0 l/m 0 min 0 min 0 W/m 22,5 km/h (4 Bft) 97,87 %
19.11.2023 00:42 11,4 C 10,6 C 8,9 C 100 % 1010,1 hPa 0,0 l/m 0 min 0 min 0 W/m 25,7 km/h (4 Bft) 97,87 %
19.11.2023 00:44 11,5 C 11,1 C 8,9 C 100 % 1009,8 hPa 0,0 l/m 0 min 0 min 0 W/m 45,1 km/h (6 Bft) 97,83 %
19.11.2023 00:46 11,5 C 11,1 C 8,9 C 100 % 1009,8 hPa 0,0 l/m 0 min 0 min 0 W/m 32,2 km/h (5 Bft) 97,87 %
19.11.2023 00:48 11,5 C 11,1 C 8,9 C 100 % 1009,8 hPa 0,0 l/m 0 min 0 min 0 W/m 41,8 km/h (6 Bft) 97,87 %
19.11.2023 00:50 11,5 C 11,1 C 8,9 C 100 % 1009,5 hPa 0,0 l/m 0 min 0 min 0 W/m 32,2 km/h (5 Bft) 97,87 %
19.11.2023 00:52 11,6 C 11,1 C 8,9 C 100 % 1009,4 hPa 0,0 l/m 0 min 2 min 0 W/m 45,1 km/h (6 Bft) 97,87 %
19.11.2023 00:54 11,6 C 11,1 C 8,9 C 100 % 1009,4 hPa 0,0 l/m 0 min 2 min 0 W/m 32,2 km/h (5 Bft) 93,62 %
19.11.2023 00:56 11,6 C 11,1 C 8,9 C 100 % 1009,7 hPa 0,0 l/m 0 min 2 min 0 W/m 29,0 km/h (5 Bft) 97,87 %
19.11.2023 00:58 11,6 C 11,1 C 8,9 C 100 % 1009,7 hPa 0,0 l/m 0 min 0 min 0 W/m 25,7 km/h (4 Bft) 97,83 %
19.11.2023 01:00 11,6 C 11,1 C 8,9 C 100 % 1009,9 hPa 0,0 l/m 0 min 0 min 0 W/m 29,0 km/h (5 Bft) 97,87 %
19.11.2023 01:02 11,6 C 11,1 C 8,9 C 100 % 1010,1 hPa 0,0 l/m 0 min 0 min 0 W/m 12,9 km/h (3 Bft) 93,62 %
19.11.2023 01:04 11,6 C 11,1 C 8,9 C 100 % 1010,3 hPa 0,0 l/m 0 min 0 min 0 W/m 12,9 km/h (3 Bft) 97,83 %
19.11.2023 01:08 11,6 C 11,1 C 8,9 C 100 % 1010,3 hPa 0,0 l/m 0 min 0 min 0 W/m 19,3 km/h (3 Bft) 97,87 %
19.11.2023 01:09 11,6 C 11,1 C 8,9 C 100 % 1010,2 hPa 0,0 l/m 0 min 0 min 0 W/m 12,9 km/h (3 Bft) 100,00 %
19.11.2023 01:10 11,6 C 11,1 C 8,9 C 100 % 1010,2 hPa 0,0 l/m 0 min 0 min 0 W/m 12,9 km/h (3 Bft) 100,00 %
19.11.2023 01:14 11,6 C 11,1 C 8,9 C 100 % 1010,3 hPa 0,0 l/m 0 min 0 min 0 W/m 35,4 km/h (5 Bft) 100,00 %
19.11.2023 01:16 11,6 C 11,1 C 8,9 C 100 % 1010,3 hPa 0,0 l/m 0 min 0 min 0 W/m 12,9 km/h (3 Bft) 98,18 %
19.11.2023 01:18 11,6 C 11,1 C 8,9 C 100 % 1010,2 hPa 0,0 l/m 0 min 0 min 0 W/m 12,9 km/h (3 Bft) 100,00 %
19.11.2023 01:20 11,6 C 11,1 C 8,9 C 100 % 1010,1 hPa 0,0 l/m 0 min 0 min 0 W/m 19,3 km/h (3 Bft) 100,00 %
19.11.2023 01:22 11,6 C 11,1 C 8,9 C 100 % 1010,2 hPa 0,0 l/m 0 min 0 min 0 W/m 16,1 km/h (3 Bft) 95,74 %
19.11.2023 01:24 11,7 C 11,1 C 8,9 C 100 % 1010,2 hPa 0,0 l/m 0 min 0 min 0 W/m 12,9 km/h (3 Bft) 59,09 %
19.11.2023 01:26 11,7 C 11,1 C 8,9 C 100 % 1010,1 hPa 0,0 l/m 0 min 0 min 0 W/m 16,1 km/h (3 Bft) 97,87 %
19.11.2023 01:28 11,7 C 11,1 C 8,9 C 100 % 1010,2 hPa 0,0 l/m 0 min 0 min 0 W/m 12,9 km/h (3 Bft) 97,87 %
19.11.2023 01:30 11,7 C 11,1 C 8,9 C 100 % 1010,2 hPa 0,0 l/m 0 min 0 min 0 W/m 16,1 km/h (3 Bft) 97,87 %
19.11.2023 01:32 11,7 C 11,1 C 8,9 C 100 % 1010,2 hPa 0,0 l/m 0 min 0 min 0 W/m 12,9 km/h (3 Bft) 100,00 %
19.11.2023 01:34 11,7 C 11,1 C 8,9 C 100 % 1010,2 hPa 0,0 l/m 0 min 2 min 0 W/m 19,3 km/h (3 Bft) 100,00 %
19.11.2023 01:36 11,8 C 11,1 C 8,9 C 100 % 1010,2 hPa 0,0 l/m 0 min 2 min 0 W/m 16,1 km/h (3 Bft) 100,00 %
19.11.2023 01:38 11,8 C 11,1 C 8,9 C 100 % 1010,1 hPa 0,2 l/m 0 min 2 min 0 W/m 19,3 km/h (3 Bft) 100,00 %
19.11.2023 01:40 11,8 C 11,1 C 8,9 C 100 % 1010,2 hPa 0,0 l/m 0 min 2 min 0 W/m 6,4 km/h (2 Bft) 100,00 %
19.11.2023 01:42 11,8 C 11,1 C 8,9 C 100 % 1010,2 hPa 0,2 l/m 0 min 2 min 0 W/m 12,9 km/h (3 Bft) 100,00 %
19.11.2023 01:44 11,8 C 11,1 C 8,9 C 100 % 1010,2 hPa 0,0 l/m 0 min 2 min 0 W/m 16,1 km/h (3 Bft) 97,87 %
19.11.2023 01:46 11,8 C 11,1 C 8,9 C 100 % 1010,3 hPa 0,2 l/m 0 min 2 min 0 W/m 16,1 km/h (3 Bft) 100,00 %
19.11.2023 01:48 11,8 C 11,1 C 8,9 C 100 % 1010,2 hPa 0,4 l/m 0 min 2 min 0 W/m 12,9 km/h (3 Bft) 100,00 %
19.11.2023 01:50 11,8 C 11,1 C 8,9 C 100 % 1010,2 hPa 0,6 l/m 0 min 2 min 0 W/m 16,1 km/h (3 Bft) 100,00 %
19.11.2023 01:52 11,9 C 11,1 C 8,9 C 100 % 1010,1 hPa 0,2 l/m 0 min 2 min 0 W/m 16,1 km/h (3 Bft) 100,00 %
19.11.2023 01:54 11,9 C 11,1 C 8,9 C 100 % 1010,0 hPa 0,0 l/m 0 min 2 min 0 W/m 19,3 km/h (3 Bft) 100,00 %
19.11.2023 01:56 11,9 C 11,1 C 8,9 C 100 % 1009,9 hPa 0,0 l/m 0 min 0 min 0 W/m 22,5 km/h (4 Bft) 95,74 %
19.11.2023 01:58 11,9 C 11,1 C 8,9 C 100 % 1009,8 hPa 0,2 l/m 0 min 2 min 0 W/m 12,9 km/h (3 Bft) 97,14 %
19.11.2023 02:00 11,9 C 11,1 C 8,9 C 100 % 1009,9 hPa 0,0 l/m 0 min 2 min 0 W/m 12,9 km/h (3 Bft) 100,00 %
19.11.2023 02:02 12,0 C 11,1 C 9,4 C 100 % 1010,0 hPa 0,0 l/m 0 min 0 min 0 W/m 22,5 km/h (4 Bft) 100,00 %
19.11.2023 02:04 12,0 C 11,1 C 9,4 C 100 % 1009,8 hPa 0,0 l/m 0 min 0 min 0 W/m 25,7 km/h (4 Bft) 100,00 %
19.11.2023 02:06 12,0 C 11,1 C 9,4 C 100 % 1009,9 hPa 0,0 l/m 0 min 0 min 0 W/m 19,3 km/h (3 Bft) 98,33 %
19.11.2023 02:08 12,0 C 11,1 C 8,9 C 100 % 1009,8 hPa 0,0 l/m 0 min 0 min 0 W/m 3,2 km/h (1 Bft) 97,22 %
19.11.2023 02:10 11,9 C 11,1 C 8,9 C 100 % 1009,9 hPa 0,0 l/m 0 min 0 min 0 W/m 9,7 km/h (2 Bft) 97,83 %
19.11.2023 02:12 12,0 C 11,1 C 8,9 C 100 % 1009,9 hPa 0,0 l/m 0 min 0 min 0 W/m 16,1 km/h (3 Bft) 97,87 %
19.11.2023 02:14 12,0 C 11,1 C 8,9 C 100 % 1009,9 hPa 0,0 l/m 0 min 2 min 0 W/m 16,1 km/h (3 Bft) 93,62 %
19.11.2023 02:16 12,0 C 11,1 C 8,9 C 100 % 1009,9 hPa 0,0 l/m 0 min 2 min 0 W/m 12,9 km/h (3 Bft) 95,74 %
19.11.2023 02:18 12,0 C 11,1 C 9,4 C 100 % 1009,8 hPa 0,0 l/m 0 min 2 min 0 W/m 12,9 km/h (3 Bft) 95,74 %
19.11.2023 02:20 12,0 C 11,1 C 9,4 C 100 % 1009,8 hPa 0,0 l/m 0 min 2 min 0 W/m 16,1 km/h (3 Bft) 97,87 %
19.11.2023 02:22 12,0 C 11,1 C 9,4 C 100 % 1009,8 hPa 0,0 l/m 0 min 2 min 0 W/m 16,1 km/h (3 Bft) 93,48 %
19.11.2023 02:24 12,1 C 11,1 C 9,4 C 100 % 1009,8 hPa 0,0 l/m 0 min 2 min 0 W/m 29,0 km/h (5 Bft) 97,87 %
19.11.2023 02:26 12,1 C 11,1 C 9,4 C 100 % 1009,8 hPa 0,0 l/m 0 min 0 min 0 W/m 25,7 km/h (4 Bft) 95,74 %
19.11.2023 02:28 12,1 C 11,1 C 9,4 C 100 % 1009,9 hPa 0,0 l/m 0 min 0 min 0 W/m 25,7 km/h (4 Bft) 95,74 %
19.11.2023 02:30 12,1 C 11,1 C 9,4 C 100 % 1009,9 hPa 0,0 l/m 0 min 0 min 0 W/m 12,9 km/h (3 Bft) 100,00 %
19.11.2023 02:32 12,1 C 11,1 C 9,4 C 100 % 1009,9 hPa 0,0 l/m 0 min 0 min 0 W/m 6,4 km/h (2 Bft) 95,74 %
19.11.2023 02:34 12,1 C 11,1 C 9,4 C 100 % 1009,9 hPa 0,0 l/m 0 min 0 min 0 W/m 12,9 km/h (3 Bft) 93,48 %
19.11.2023 02:36 12,1 C 11,1 C 9,4 C 100 % 1010,0 hPa 0,0 l/m 0 min 0 min 0 W/m 12,9 km/h (3 Bft) 91,49 %
19.11.2023 02:38 12,1 C 11,1 C 9,4 C 100 % 1010,1 hPa 0,0 l/m 0 min 0 min 0 W/m 12,9 km/h (3 Bft) 91,49 %
19.11.2023 02:40 12,1 C 11,1 C 9,4 C 100 % 1010,0 hPa 0,0 l/m 0 min 0 min 0 W/m 12,9 km/h (3 Bft) 91,49 %
19.11.2023 02:42 12,1 C 11,1 C 9,4 C 100 % 1009,9 hPa 0,0 l/m 0 min 0 min 0 W/m 16,1 km/h (3 Bft) 93,62 %
19.11.2023 02:44 12,1 C 11,1 C 9,4 C 100 % 1009,8 hPa 0,0 l/m 0 min 0 min 0 W/m 19,3 km/h (3 Bft) 93,62 %
19.11.2023 02:46 12,1 C 11,1 C 9,4 C 100 % 1009,9 hPa 0,0 l/m 0 min 0 min 0 W/m 12,9 km/h (3 Bft) 91,30 %
19.11.2023 02:48 12,1 C 11,1 C 9,4 C 100 % 1009,9 hPa 0,0 l/m 0 min 0 min 0 W/m 19,3 km/h (3 Bft) 95,74 %
19.11.2023 02:50 12,1 C 11,7 C 9,4 C 100 % 1009,9 hPa 0,0 l/m 0 min 0 min 0 W/m 19,3 km/h (3 Bft) 93,62 %
19.11.2023 02:52 12,1 C 11,7 C 9,4 C 100 % 1009,9 hPa 0,0 l/m 0 min 0 min 0 W/m 12,9 km/h (3 Bft) 91,49 %
19.11.2023 02:54 12,1 C 11,7 C 9,4 C 100 % 1010,0 hPa 0,0 l/m 0 min 0 min 0 W/m 16,1 km/h (3 Bft) 95,74 %
19.11.2023 02:56 12,1 C 11,1 C 9,4 C 100 % 1010,0 hPa 0,0 l/m 0 min 0 min 0 W/m 22,5 km/h (4 Bft) 95,65 %
19.11.2023 02:58 12,1 C 11,7 C 9,4 C 100 % 1010,0 hPa 0,0 l/m 0 min 2 min 0 W/m 16,1 km/h (3 Bft) 95,74 %
19.11.2023 03:00 12,1 C 11,7 C 9,4 C 100 % 1010,0 hPa 0,0 l/m 0 min 2 min 0 W/m 16,1 km/h (3 Bft) 95,74 %
19.11.2023 03:02 12,1 C 11,7 C 9,4 C 100 % 1009,9 hPa 0,0 l/m 0 min 2 min 0 W/m 12,9 km/h (3 Bft) 95,74 %
19.11.2023 03:04 12,1 C 11,7 C 9,4 C 100 % 1009,9 hPa 0,0 l/m 0 min 0 min 0 W/m 12,9 km/h (3 Bft) 95,35 %
19.11.2023 03:08 12,1 C 11,7 C 9,4 C 100 % 1009,9 hPa 0,0 l/m 0 min 4 min 0 W/m 19,3 km/h (3 Bft) 97,09 %
19.11.2023 03:09 12,1 C 11,7 C 9,4 C 100 % 1009,7 hPa 0,0 l/m 0 min 0 min 0 W/m 25,7 km/h (4 Bft) 100,00 %
19.11.2023 03:12 12,2 C 11,7 C 9,4 C 100 % 1009,6 hPa 0,0 l/m 0 min 3 min 0 W/m 19,3 km/h (3 Bft) 97,14 %
19.11.2023 03:14 12,2 C 11,7 C 9,4 C 100 % 1009,6 hPa 0,0 l/m 0 min 2 min 0 W/m 19,3 km/h (3 Bft) 97,87 %
19.11.2023 03:16 12,2 C 11,7 C 9,4 C 100 % 1009,5 hPa 0,0 l/m 0 min 2 min 0 W/m 16,1 km/h (3 Bft) 97,87 %
19.11.2023 03:18 12,2 C 11,7 C 9,4 C 100 % 1009,4 hPa 0,0 l/m 0 min 0 min 0 W/m 19,3 km/h (3 Bft) 95,74 %
19.11.2023 03:20 12,2 C 11,7 C 9,4 C 100 % 1009,2 hPa 0,0 l/m 0 min 0 min 0 W/m 19,3 km/h (3 Bft) 95,74 %
19.11.2023 03:22 12,2 C 11,7 C 9,4 C 100 % 1009,2 hPa 0,0 l/m 0 min 0 min 0 W/m 12,9 km/h (3 Bft) 97,83 %
19.11.2023 03:24 12,2 C 11,7 C 9,4 C 100 % 1009,2 hPa 0,0 l/m 0 min 0 min 0 W/m 12,9 km/h (3 Bft) 100,00 %
19.11.2023 03:26 12,2 C 11,7 C 9,4 C 100 % 1009,2 hPa 0,0 l/m 0 min 0 min 0 W/m 12,9 km/h (3 Bft) 100,00 %
19.11.2023 03:28 12,2 C 11,7 C 9,4 C 100 % 1009,2 hPa 0,0 l/m 0 min 0 min 0 W/m 12,9 km/h (3 Bft) 100,00 %
19.11.2023 03:30 12,2 C 11,7 C 9,4 C 100 % 1009,2 hPa 0,0 l/m 0 min 0 min 0 W/m 22,5 km/h (4 Bft) 100,00 %
19.11.2023 03:32 12,2 C 11,7 C 9,4 C 100 % 1009,2 hPa 0,0 l/m 0 min 0 min 0 W/m 12,9 km/h (3 Bft) 97,87 %
19.11.2023 03:34 12,2 C 11,7 C 9,4 C 100 % 1009,2 hPa 0,0 l/m 0 min 0 min 0 W/m 22,5 km/h (4 Bft) 100,00 %
19.11.2023 03:36 12,2 C 11,7 C 9,4 C 100 % 1009,2 hPa 0,0 l/m 0 min 0 min 0 W/m 9,7 km/h (2 Bft) 97,83 %
19.11.2023 03:38 12,2 C 11,7 C 9,4 C 100 % 1009,2 hPa 0,0 l/m 0 min 0 min 0 W/m 12,9 km/h (3 Bft) 97,87 %
19.11.2023 03:40 12,2 C 11,7 C 9,4 C 100 % 1009,2 hPa 0,0 l/m 0 min 0 min 0 W/m 22,5 km/h (4 Bft) 100,00 %
19.11.2023 03:42 12,2 C 11,7 C 9,4 C 100 % 1009,1 hPa 0,0 l/m 0 min 0 min 0 W/m 12,9 km/h (3 Bft) 100,00 %
19.11.2023 03:44 12,2 C 11,7 C 9,4 C 100 % 1009,3 hPa 0,0 l/m 0 min 0 min 0 W/m 12,9 km/h (3 Bft) 95,74 %
19.11.2023 03:46 12,2 C 11,7 C 9,4 C 100 % 1009,3 hPa 0,0 l/m 0 min 0 min 0 W/m 16,1 km/h (3 Bft) 97,87 %
19.11.2023 03:48 12,2 C 11,7 C 9,4 C 100 % 1009,3 hPa 0,0 l/m 0 min 0 min 0 W/m 12,9 km/h (3 Bft) 100,00 %
19.11.2023 03:50 12,2 C 11,7 C 9,4 C 100 % 1009,2 hPa 0,0 l/m 0 min 0 min 0 W/m 22,5 km/h (4 Bft) 100,00 %
19.11.2023 03:52 12,1 C 11,7 C 9,4 C 100 % 1009,3 hPa 0,0 l/m 0 min 0 min 0 W/m 12,9 km/h (3 Bft) 100,00 %
19.11.2023 03:54 12,2 C 11,7 C 9,4 C 100 % 1009,2 hPa 0,0 l/m 0 min 0 min 0 W/m 12,9 km/h (3 Bft) 100,00 %
19.11.2023 03:56 12,2 C 11,7 C 9,4 C 100 % 1009,2 hPa 0,0 l/m 0 min 0 min 0 W/m 16,1 km/h (3 Bft) 100,00 %
19.11.2023 03:58 12,2 C 11,7 C 9,4 C 100 % 1009,2 hPa 0,0 l/m 0 min 0 min 0 W/m 16,1 km/h (3 Bft) 100,00 %
19.11.2023 04:00 12,2 C 11,7 C 9,4 C 100 % 1009,1 hPa 0,0 l/m 0 min 0 min 0 W/m 19,3 km/h (3 Bft) 100,00 %
19.11.2023 04:02 12,2 C 11,7 C 9,4 C 100 % 1009,2 hPa 0,0 l/m 0 min 0 min 0 W/m 12,9 km/h (3 Bft) 100,00 %
19.11.2023 04:04 12,2 C 11,7 C 9,4 C 100 % 1009,1 hPa 0,0 l/m 0 min 0 min 0 W/m 19,3 km/h (3 Bft) 100,00 %
19.11.2023 04:06 12,2 C 11,7 C 9,4 C 100 % 1009,1 hPa 0,0 l/m 0 min 0 min 0 W/m 16,1 km/h (3 Bft) 100,00 %
19.11.2023 04:08 12,2 C 11,7 C 9,4 C 100 % 1009,1 hPa 0,0 l/m 0 min 0 min 0 W/m 16,1 km/h (3 Bft) 100,00 %
19.11.2023 04:10 12,1 C 11,7 C 9,4 C 100 % 1009,0 hPa 0,0 l/m 0 min 0 min 0 W/m 16,1 km/h (3 Bft) 100,00 %
19.11.2023 04:12 12,2 C 11,7 C 9,4 C 100 % 1009,0 hPa 0,0 l/m 0 min 0 min 0 W/m 16,1 km/h (3 Bft) 100,00 %
19.11.2023 04:14 12,2 C 11,7 C 9,4 C 100 % 1009,0 hPa 0,0 l/m 0 min 0 min 0 W/m 19,3 km/h (3 Bft) 97,87 %
19.11.2023 04:16 12,2 C 11,7 C 9,4 C 100 % 1009,0 hPa 0,0 l/m 0 min 0 min 0 W/m 19,3 km/h (3 Bft) 100,00 %
19.11.2023 04:18 12,3 C 11,7 C 9,4 C 100 % 1009,1 hPa 0,0 l/m 0 min 0 min 0 W/m 12,9 km/h (3 Bft) 100,00 %
19.11.2023 04:20 12,3 C 11,7 C 9,4 C 100 % 1009,1 hPa 0,0 l/m 0 min 0 min 0 W/m 16,1 km/h (3 Bft) 100,00 %
19.11.2023 04:22 12,3 C 11,7 C 9,4 C 100 % 1009,1 hPa 0,0 l/m 0 min 0 min 0 W/m 19,3 km/h (3 Bft) 97,83 %
19.11.2023 04:24 12,3 C 11,7 C 9,4 C 100 % 1009,1 hPa 0,0 l/m 0 min 0 min 0 W/m 19,3 km/h (3 Bft) 97,87 %
19.11.2023 04:26 12,3 C 11,7 C 9,4 C 100 % 1009,2 hPa 0,0 l/m 0 min 0 min 0 W/m 22,5 km/h (4 Bft) 100,00 %
19.11.2023 04:28 12,3 C 11,7 C 9,4 C 100 % 1009,0 hPa 0,0 l/m 0 min 0 min 0 W/m 12,9 km/h (3 Bft) 95,74 %
19.11.2023 04:30 12,3 C 11,7 C 9,4 C 100 % 1009,0 hPa 0,0 l/m 0 min 0 min 0 W/m 19,3 km/h (3 Bft) 97,87 %
19.11.2023 04:32 12,4 C 11,7 C 9,4 C 100 % 1009,1 hPa 0,0 l/m 0 min 0 min 0 W/m 16,1 km/h (3 Bft) 95,74 %
19.11.2023 04:34 12,3 C 11,7 C 9,4 C 100 % 1009,1 hPa 0,0 l/m 0 min 0 min 0 W/m 12,9 km/h (3 Bft) 98,08 %
19.11.2023 04:36 12,3 C 11,7 C 9,4 C 99 % 1009,1 hPa 0,0 l/m 0 min 0 min 0 W/m 19,3 km/h (3 Bft) 97,56 %
19.11.2023 04:38 12,3 C 11,7 C 9,4 C 99 % 1009,1 hPa 0,0 l/m 0 min 0 min 0 W/m 12,9 km/h (3 Bft) 97,87 %
19.11.2023 04:40 12,3 C 11,7 C 9,4 C 99 % 1009,1 hPa 0,0 l/m 0 min 0 min 0 W/m 19,3 km/h (3 Bft) 96,23 %
19.11.2023 04:42 12,3 C 11,7 C 8,9 C 99 % 1009,1 hPa 0,0 l/m 0 min 0 min 0 W/m 16,1 km/h (3 Bft) 95,74 %
19.11.2023 04:44 12,3 C 11,7 C 8,9 C 99 % 1009,1 hPa 0,0 l/m 0 min 0 min 0 W/m 19,3 km/h (3 Bft) 95,74 %
19.11.2023 04:46 12,2 C 11,7 C 8,9 C 99 % 1009,2 hPa 0,0 l/m 0 min 0 min 0 W/m 19,3 km/h (3 Bft) 91,49 %
19.11.2023 04:48 12,2 C 11,7 C 8,9 C 99 % 1009,2 hPa 0,0 l/m 0 min 0 min 0 W/m 16,1 km/h (3 Bft) 95,74 %
19.11.2023 04:50 12,2 C 11,7 C 8,9 C 99 % 1009,1 hPa 0,0 l/m 0 min 0 min 0 W/m 12,9 km/h (3 Bft) 93,88 %
19.11.2023 04:52 12,2 C 11,7 C 8,9 C 99 % 1009,1 hPa 0,0 l/m 0 min 0 min 0 W/m 22,5 km/h (4 Bft) 94,74 %
19.11.2023 04:54 12,2 C 11,7 C 8,9 C 99 % 1009,3 hPa 0,0 l/m 0 min 0 min 0 W/m 12,9 km/h (3 Bft) 93,62 %
19.11.2023 04:56 12,1 C 11,7 C 8,9 C 99 % 1009,3 hPa 0,0 l/m 0 min 0 min 0 W/m 12,9 km/h (3 Bft) 93,62 %
19.11.2023 04:58 12,1 C 11,1 C 8,9 C 99 % 1009,3 hPa 0,0 l/m 0 min 0 min 0 W/m 12,9 km/h (3 Bft) 93,62 %
19.11.2023 05:00 12,1 C 11,7 C 8,9 C 98 % 1009,3 hPa 0,0 l/m 0 min 0 min 0 W/m 16,1 km/h (3 Bft) 95,74 %
19.11.2023 05:02 12,1 C 11,1 C 8,9 C 98 % 1009,3 hPa 0,0 l/m 0 min 0 min 0 W/m 16,1 km/h (3 Bft) 100,00 %
19.11.2023 05:04 12,1 C 11,1 C 8,9 C 98 % 1009,4 hPa 0,0 l/m 0 min 0 min 0 W/m 12,9 km/h (3 Bft) 98,04 %
19.11.2023 05:10 12,1 C 11,1 C 8,9 C 98 % 1009,1 hPa 0,0 l/m 0 min 0 min 0 W/m 22,5 km/h (4 Bft) 97,90 %
19.11.2023 05:12 12,1 C 11,1 C 8,9 C 98 % 1009,1 hPa 0,0 l/m 0 min 0 min 0 W/m 19,3 km/h (3 Bft) 97,87 %
19.11.2023 05:14 12,1 C 11,1 C 8,9 C 98 % 1009,1 hPa 0,0 l/m 0 min 0 min 0 W/m 16,1 km/h (3 Bft) 97,87 %
19.11.2023 05:16 12,0 C 11,1 C 8,9 C 98 % 1009,1 hPa 0,0 l/m 0 min 0 min 0 W/m 19,3 km/h (3 Bft) 95,65 %
19.11.2023 05:18 12,0 C 11,1 C 8,9 C 98 % 1009,0 hPa 0,0 l/m 0 min 0 min 0 W/m 19,3 km/h (3 Bft) 100,00 %
19.11.2023 05:20 12,0 C 11,1 C 8,9 C 98 % 1009,1 hPa 0,0 l/m 0 min 0 min 0 W/m 16,1 km/h (3 Bft) 100,00 %
19.11.2023 05:22 12,0 C 11,1 C 8,9 C 98 % 1009,1 hPa 0,0 l/m 0 min 0 min 0 W/m 22,5 km/h (4 Bft) 100,00 %
19.11.2023 05:24 12,0 C 11,1 C 8,9 C 98 % 1009,4 hPa 0,0 l/m 0 min 0 min 0 W/m 19,3 km/h (3 Bft) 100,00 %
19.11.2023 05:26 11,9 C 11,1 C 8,9 C 97 % 1009,2 hPa 0,0 l/m 0 min 0 min 0 W/m 19,3 km/h (3 Bft) 100,00 %
19.11.2023 05:28 12,0 C 11,1 C 8,9 C 97 % 1009,3 hPa 0,0 l/m 0 min 0 min 0 W/m 12,9 km/h (3 Bft) 97,87 %
19.11.2023 05:30 11,9 C 11,1 C 8,9 C 97 % 1009,3 hPa 0,0 l/m 0 min 0 min 0 W/m 12,9 km/h (3 Bft) 97,83 %
19.11.2023 05:32 11,9 C 11,1 C 8,9 C 97 % 1009,4 hPa 0,0 l/m 0 min 0 min 0 W/m 12,9 km/h (3 Bft) 100,00 %
19.11.2023 05:34 11,9 C 11,1 C 8,9 C 97 % 1009,3 hPa 0,0 l/m 0 min 0 min 0 W/m 12,9 km/h (3 Bft) 95,74 %
19.11.2023 05:36 11,9 C 11,1 C 8,9 C 97 % 1009,3 hPa 0,0 l/m 0 min 0 min 0 W/m 19,3 km/h (3 Bft) 97,87 %
19.11.2023 05:38 11,9 C 11,1 C 8,9 C 97 % 1009,2 hPa 0,0 l/m 0 min 0 min 0 W/m 19,3 km/h (3 Bft) 97,87 %
19.11.2023 05:40 11,9 C 11,1 C 8,9 C 97 % 1009,2 hPa 0,0 l/m 0 min 0 min 0 W/m 12,9 km/h (3 Bft) 97,87 %
19.11.2023 05:42 11,8 C 11,1 C 8,9 C 97 % 1009,3 hPa 0,0 l/m 0 min 0 min 0 W/m 19,3 km/h (3 Bft) 97,87 %
19.11.2023 05:44 11,8 C 11,1 C 8,9 C 97 % 1009,3 hPa 0,0 l/m 0 min 0 min 0 W/m 19,3 km/h (3 Bft) 95,74 %
19.11.2023 05:46 11,8 C 11,1 C 8,9 C 97 % 1009,2 hPa 0,0 l/m 0 min 0 min 0 W/m 19,3 km/h (3 Bft) 97,83 %
19.11.2023 05:48 11,8 C 11,1 C 8,9 C 97 % 1009,2 hPa 0,0 l/m 0 min 0 min 0 W/m 16,1 km/h (3 Bft) 97,87 %
19.11.2023 05:50 11,8 C 11,1 C 8,9 C 97 % 1009,2 hPa 0,0 l/m 0 min 0 min 0 W/m 22,5 km/h (4 Bft) 97,87 %
19.11.2023 05:52 11,8 C 11,1 C 8,9 C 97 % 1009,2 hPa 0,0 l/m 0 min 0 min 0 W/m 22,5 km/h (4 Bft) 97,87 %
19.11.2023 05:54 11,9 C 11,1 C 8,9 C 97 % 1009,3 hPa 0,0 l/m 0 min 0 min 0 W/m 25,7 km/h (4 Bft) 97,87 %
19.11.2023 05:56 11,8 C 11,1 C 8,9 C 97 % 1009,3 hPa 0,0 l/m 0 min 0 min 0 W/m 12,9 km/h (3 Bft) 97,87 %
19.11.2023 05:58 11,8 C 11,1 C 8,9 C 97 % 1009,3 hPa 0,0 l/m 0 min 0 min 0 W/m 12,9 km/h (3 Bft) 97,87 %
19.11.2023 06:00 11,8 C 11,1 C 8,9 C 97 % 1009,3 hPa 0,0 l/m 0 min 0 min 0 W/m 22,5 km/h (4 Bft) 97,83 %
19.11.2023 06:02 11,8 C 11,1 C 8,9 C 97 % 1009,3 hPa 0,0 l/m 0 min 0 min 0 W/m 19,3 km/h (3 Bft) 93,62 %
19.11.2023 06:04 11,8 C 11,1 C 8,3 C 97 % 1009,1 hPa 0,0 l/m 0 min 0 min 0 W/m 19,3 km/h (3 Bft) 97,73 %
19.11.2023 06:08 11,8 C 11,1 C 8,3 C 97 % 1009,2 hPa 0,0 l/m 0 min 0 min 0 W/m 19,3 km/h (3 Bft) 96,81 %
19.11.2023 06:10 11,8 C 11,1 C 8,3 C 96 % 1009,3 hPa 0,0 l/m 0 min 0 min 0 W/m 16,1 km/h (3 Bft) 95,74 %
19.11.2023 06:12 11,8 C 11,1 C 8,3 C 96 % 1009,3 hPa 0,0 l/m 0 min 0 min 0 W/m 19,3 km/h (3 Bft) 97,87 %
19.11.2023 06:16 11,8 C 11,1 C 8,3 C 96 % 1009,3 hPa 0,0 l/m 0 min 0 min 0 W/m 19,3 km/h (3 Bft) 96,81 %
19.11.2023 06:18 11,9 C 11,1 C 8,3 C 96 % 1009,4 hPa 0,0 l/m 0 min 0 min 0 W/m 22,5 km/h (4 Bft) 97,87 %
19.11.2023 06:20 11,9 C 11,1 C 8,3 C 96 % 1009,2 hPa 0,0 l/m 0 min 0 min 0 W/m 22,5 km/h (4 Bft) 95,74 %
19.11.2023 06:22 11,9 C 11,1 C 8,3 C 96 % 1009,3 hPa 0,0 l/m 0 min 0 min 0 W/m 22,5 km/h (4 Bft) 95,74 %
19.11.2023 06:24 11,9 C 11,1 C 8,3 C 96 % 1009,3 hPa 0,0 l/m 0 min 0 min 0 W/m 22,5 km/h (4 Bft) 97,87 %
19.11.2023 06:26 11,9 C 11,1 C 8,3 C 95 % 1009,4 hPa 0,0 l/m 0 min 0 min 0 W/m 19,3 km/h (3 Bft) 97,14 %
19.11.2023 06:28 11,9 C 11,1 C 8,3 C 95 % 1009,5 hPa 0,0 l/m 0 min 0 min 0 W/m 19,3 km/h (3 Bft) 98,11 %
19.11.2023 06:30 11,9 C 11,1 C 8,3 C 95 % 1009,5 hPa 0,0 l/m 0 min 0 min 0 W/m 19,3 km/h (3 Bft) 97,83 %
19.11.2023 06:32 11,9 C 11,1 C 8,3 C 95 % 1009,5 hPa 0,0 l/m 0 min 0 min 0 W/m 22,5 km/h (4 Bft) 95,74 %
19.11.2023 06:34 11,9 C 11,1 C 8,3 C 95 % 1009,5 hPa 0,0 l/m 0 min 0 min 0 W/m 19,3 km/h (3 Bft) 97,87 %
19.11.2023 06:36 11,9 C 11,1 C 8,3 C 95 % 1009,5 hPa 0,0 l/m 0 min 0 min 0 W/m 29,0 km/h (5 Bft) 97,56 %
19.11.2023 06:38 11,9 C 11,1 C 8,3 C 95 % 1009,7 hPa 0,0 l/m 0 min 0 min 0 W/m 22,5 km/h (4 Bft) 96,23 %
19.11.2023 06:40 11,9 C 11,1 C 8,3 C 95 % 1009,5 hPa 0,0 l/m 0 min 0 min 0 W/m 19,3 km/h (3 Bft) 97,87 %
19.11.2023 06:42 11,9 C 11,1 C 8,3 C 95 % 1009,5 hPa 0,0 l/m 0 min 0 min 0 W/m 16,1 km/h (3 Bft) 97,56 %
19.11.2023 06:44 11,9 C 11,1 C 8,3 C 95 % 1009,5 hPa 0,0 l/m 0 min 0 min 0 W/m 19,3 km/h (3 Bft) 97,87 %
19.11.2023 06:46 12,0 C 11,1 C 8,3 C 95 % 1009,4 hPa 0,0 l/m 0 min 0 min 0 W/m 16,1 km/h (3 Bft) 98,08 %
19.11.2023 06:48 12,0 C 11,1 C 8,3 C 94 % 1009,5 hPa 0,0 l/m 0 min 0 min 0 W/m 22,5 km/h (4 Bft) 97,56 %
19.11.2023 06:50 12,0 C 11,1 C 8,3 C 94 % 1009,4 hPa 0,0 l/m 0 min 0 min 0 W/m 16,1 km/h (3 Bft) 95,74 %
19.11.2023 06:52 12,0 C 11,1 C 8,3 C 94 % 1009,5 hPa 0,0 l/m 0 min 0 min 0 W/m 25,7 km/h (4 Bft) 98,11 %
19.11.2023 06:54 12,0 C 11,1 C 8,3 C 94 % 1009,6 hPa 0,0 l/m 0 min 0 min 0 W/m 22,5 km/h (4 Bft) 98,11 %
19.11.2023 06:56 12,0 C 11,1 C 8,3 C 94 % 1009,6 hPa 0,0 l/m 0 min 0 min 0 W/m 19,3 km/h (3 Bft) 100,00 %
19.11.2023 06:58 11,9 C 11,1 C 8,3 C 94 % 1009,7 hPa 0,0 l/m 0 min 0 min 0 W/m 16,1 km/h (3 Bft) 100,00 %
19.11.2023 07:00 11,9 C 11,1 C 8,3 C 94 % 1009,8 hPa 0,0 l/m 0 min 0 min 0 W/m 25,7 km/h (4 Bft) 97,87 %
19.11.2023 07:02 11,9 C 11,1 C 8,3 C 93 % 1009,5 hPa 0,0 l/m 0 min 0 min 0 W/m 16,1 km/h (3 Bft) 95,74 %
19.11.2023 07:04 11,9 C 11,1 C 8,3 C 93 % 1009,8 hPa 0,0 l/m 0 min 0 min 0 W/m 22,5 km/h (4 Bft) 97,78 %
19.11.2023 07:08 11,9 C 11,1 C 8,3 C 93 % 1009,9 hPa 0,0 l/m 0 min 0 min 0 W/m 22,5 km/h (4 Bft) 96,81 %
19.11.2023 07:09 11,9 C 11,1 C 8,3 C 93 % 1009,7 hPa 0,0 l/m 0 min 0 min 0 W/m 12,9 km/h (3 Bft) 100,00 %
19.11.2023 07:12 11,9 C 11,1 C 8,3 C 93 % 1009,7 hPa 0,0 l/m 0 min 0 min 0 W/m 16,1 km/h (3 Bft) 97,01 %
19.11.2023 07:14 11,9 C 11,1 C 8,3 C 93 % 1009,8 hPa 0,0 l/m 0 min 0 min 0 W/m 22,5 km/h (4 Bft) 97,87 %
19.11.2023 07:16 11,9 C 11,1 C 8,3 C 93 % 1009,7 hPa 0,0 l/m 0 min 0 min 0 W/m 16,1 km/h (3 Bft) 97,87 %
19.11.2023 07:18 11,9 C 11,1 C 8,3 C 93 % 1009,7 hPa 0,0 l/m 0 min 0 min 0 W/m 32,2 km/h (5 Bft) 95,74 %
19.11.2023 07:20 11,9 C 11,1 C 8,3 C 92 % 1009,7 hPa 0,0 l/m 0 min 0 min 0 W/m 22,5 km/h (4 Bft) 95,74 %
19.11.2023 07:22 11,9 C 11,1 C 8,3 C 92 % 1009,8 hPa 0,0 l/m 0 min 0 min 0 W/m 19,3 km/h (3 Bft) 97,87 %
19.11.2023 07:24 11,8 C 11,1 C 8,3 C 92 % 1009,7 hPa 0,0 l/m 0 min 0 min 0 W/m 19,3 km/h (3 Bft) 95,74 %
19.11.2023 07:26 11,8 C 11,1 C 7,8 C 92 % 1009,7 hPa 0,0 l/m 0 min 0 min 0 W/m 16,1 km/h (3 Bft) 95,65 %
19.11.2023 07:28 11,8 C 11,1 C 7,8 C 92 % 1009,7 hPa 0,0 l/m 0 min 0 min 0 W/m 19,3 km/h (3 Bft) 97,87 %
19.11.2023 07:30 11,8 C 11,1 C 7,8 C 92 % 1009,7 hPa 0,0 l/m 0 min 0 min 0 W/m 19,3 km/h (3 Bft) 97,87 %
19.11.2023 07:32 11,8 C 10,6 C 7,8 C 92 % 1009,8 hPa 0,0 l/m 0 min 0 min 0 W/m 16,1 km/h (3 Bft) 95,74 %
19.11.2023 07:34 11,7 C 10,6 C 7,8 C 92 % 1009,7 hPa 0,0 l/m 0 min 0 min 0 W/m 22,5 km/h (4 Bft) 97,87 %
19.11.2023 07:36 11,7 C 10,6 C 7,8 C 92 % 1009,7 hPa 0,0 l/m 0 min 0 min 0 W/m 22,5 km/h (4 Bft) 97,87 %
19.11.2023 07:38 11,7 C 10,6 C 7,8 C 92 % 1009,7 hPa 0,0 l/m 0 min 0 min 0 W/m 19,3 km/h (3 Bft) 95,74 %
19.11.2023 07:40 11,6 C 10,6 C 7,8 C 92 % 1009,7 hPa 0,0 l/m 0 min 0 min 0 W/m 19,3 km/h (3 Bft) 97,83 %
19.11.2023 07:42 11,6 C 10,6 C 7,8 C 92 % 1009,8 hPa 0,0 l/m 0 min 0 min 0 W/m 16,1 km/h (3 Bft) 100,00 %
19.11.2023 07:44 11,6 C 10,6 C 7,8 C 92 % 1009,9 hPa 0,0 l/m 0 min 0 min 0 W/m 16,1 km/h (3 Bft) 97,87 %
19.11.2023 07:46 11,6 C 10,6 C 7,8 C 92 % 1009,8 hPa 0,0 l/m 0 min 0 min 0 W/m 22,5 km/h (4 Bft) 100,00 %
19.11.2023 07:48 11,6 C 10,6 C 7,8 C 92 % 1009,9 hPa 0,0 l/m 0 min 0 min 0 W/m 25,7 km/h (4 Bft) 100,00 %
19.11.2023 07:50 11,6 C 10,6 C 7,8 C 92 % 1009,9 hPa 0,0 l/m 0 min 0 min 0 W/m 16,1 km/h (3 Bft) 95,74 %
19.11.2023 07:52 11,6 C 10,6 C 7,8 C 92 % 1009,9 hPa 0,0 l/m 0 min 0 min 0 W/m 22,5 km/h (4 Bft) 97,87 %
19.11.2023 07:54 11,6 C 10,6 C 7,8 C 92 % 1009,9 hPa 0,0 l/m 0 min 0 min 0 W/m 16,1 km/h (3 Bft) 97,92 %
19.11.2023 07:56 11,6 C 10,6 C 7,8 C 92 % 1009,9 hPa 0,0 l/m 0 min 0 min 0 W/m 16,1 km/h (3 Bft) 97,87 %
19.11.2023 07:58 11,6 C 10,6 C 7,8 C 92 % 1009,9 hPa 0,0 l/m 0 min 0 min 0 W/m 25,7 km/h (4 Bft) 100,00 %
19.11.2023 08:00 11,5 C 10,6 C 7,8 C 92 % 1009,8 hPa 0,0 l/m 0 min 0 min 2 W/m 22,5 km/h (4 Bft) 97,87 %
19.11.2023 08:02 11,5 C 10,6 C 7,8 C 92 % 1009,9 hPa 0,0 l/m 0 min 0 min 5 W/m 19,3 km/h (3 Bft) 97,87 %
19.11.2023 08:04 11,4 C 10,6 C 7,8 C 92 % 1009,9 hPa 0,0 l/m 0 min 0 min 5 W/m 19,3 km/h (3 Bft) 100,00 %
19.11.2023 08:08 11,4 C 10,6 C 7,8 C 91 % 1009,9 hPa 0,0 l/m 0 min 0 min 6 W/m 19,3 km/h (3 Bft) 99,03 %
19.11.2023 08:09 11,4 C 10,6 C 7,8 C 91 % 1009,9 hPa 0,0 l/m 0 min 0 min 7 W/m 16,1 km/h (3 Bft) 100,00 %
19.11.2023 08:10 11,4 C 10,6 C 7,8 C 91 % 1009,9 hPa 0,0 l/m 0 min 0 min 7 W/m 19,3 km/h (3 Bft) 100,00 %
19.11.2023 08:14 11,3 C 10,6 C 7,2 C 91 % 1009,9 hPa 0,0 l/m 0 min 0 min 11 W/m 12,9 km/h (3 Bft) 97,87 %
19.11.2023 08:16 11,3 C 10,6 C 7,2 C 91 % 1009,9 hPa 0,0 l/m 0 min 0 min 11 W/m 25,7 km/h (4 Bft) 97,87 %
19.11.2023 08:18 11,3 C 10,6 C 7,2 C 91 % 1009,9 hPa 0,0 l/m 0 min 0 min 11 W/m 22,5 km/h (4 Bft) 95,74 %
19.11.2023 08:20 11,3 C 10,6 C 7,2 C 91 % 1009,8 hPa 0,0 l/m 0 min 0 min 12 W/m 16,1 km/h (3 Bft) 91,49 %
19.11.2023 08:22 11,3 C 10,6 C 7,2 C 92 % 1009,9 hPa 0,0 l/m 0 min 0 min 13 W/m 25,7 km/h (4 Bft) 95,74 %
19.11.2023 08:24 11,3 C 10,6 C 7,2 C 92 % 1009,9 hPa 0,0 l/m 0 min 0 min 14 W/m 25,7 km/h (4 Bft) 97,87 %
19.11.2023 08:26 11,2 C 10,6 C 7,2 C 92 % 1009,9 hPa 0,0 l/m 0 min 0 min 14 W/m 22,5 km/h (4 Bft) 95,65 %
19.11.2023 08:28 11,2 C 10,6 C 7,2 C 92 % 1009,8 hPa 0,0 l/m 0 min 0 min 16 W/m 12,9 km/h (3 Bft) 97,87 %
19.11.2023 08:30 11,2 C 10,6 C 7,2 C 92 % 1009,8 hPa 0,0 l/m 0 min 0 min 17 W/m 19,3 km/h (3 Bft) 97,87 %
19.11.2023 08:32 11,2 C 10,6 C 7,2 C 92 % 1009,9 hPa 0,0 l/m 0 min 0 min 18 W/m 22,5 km/h (4 Bft) 93,62 %
19.11.2023 08:34 11,2 C 10,6 C 7,2 C 92 % 1009,8 hPa 0,0 l/m 0 min 0 min 19 W/m 22,5 km/h (4 Bft) 95,74 %
19.11.2023 08:36 11,2 C 10,6 C 7,2 C 92 % 1009,9 hPa 0,0 l/m 0 min 0 min 21 W/m 22,5 km/h (4 Bft) 95,74 %
19.11.2023 08:38 11,2 C 10,6 C 7,2 C 92 % 1009,9 hPa 0,0 l/m 0 min 0 min 21 W/m 19,3 km/h (3 Bft) 95,65 %
19.11.2023 08:40 11,3 C 10,6 C 7,2 C 92 % 1009,9 hPa 0,0 l/m 0 min 0 min 22 W/m 25,7 km/h (4 Bft) 93,62 %
19.11.2023 08:42 11,3 C 10,6 C 7,2 C 92 % 1010,0 hPa 0,0 l/m 0 min 0 min 23 W/m 19,3 km/h (3 Bft) 93,62 %
19.11.2023 08:44 11,2 C 10,6 C 7,2 C 92 % 1010,0 hPa 0,0 l/m 0 min 0 min 25 W/m 16,1 km/h (3 Bft) 95,74 %
19.11.2023 08:46 11,3 C 10,6 C 7,2 C 92 % 1010,1 hPa 0,0 l/m 0 min 0 min 25 W/m 16,1 km/h (3 Bft) 95,74 %
19.11.2023 08:48 11,2 C 10,6 C 7,2 C 91 % 1010,0 hPa 0,0 l/m 0 min 0 min 26 W/m 19,3 km/h (3 Bft) 97,87 %
19.11.2023 08:50 11,2 C 10,6 C 7,2 C 91 % 1010,0 hPa 0,0 l/m 0 min 0 min 26 W/m 32,2 km/h (5 Bft) 97,87 %
19.11.2023 08:52 11,3 C 10,6 C 7,2 C 92 % 1010,2 hPa 0,0 l/m 0 min 0 min 28 W/m 22,5 km/h (4 Bft) 97,87 %
19.11.2023 08:54 11,3 C 10,6 C 7,2 C 92 % 1010,2 hPa 0,0 l/m 0 min 0 min 28 W/m 16,1 km/h (3 Bft) 95,65 %
19.11.2023 08:56 11,3 C 10,6 C 7,2 C 91 % 1010,2 hPa 0,0 l/m 0 min 0 min 30 W/m 22,5 km/h (4 Bft) 97,87 %
19.11.2023 08:58 11,3 C 10,6 C 7,2 C 91 % 1010,2 hPa 0,0 l/m 0 min 0 min 31 W/m 19,3 km/h (3 Bft) 95,74 %
19.11.2023 09:00 11,3 C 10,6 C 7,2 C 92 % 1010,2 hPa 0,0 l/m 0 min 0 min 32 W/m 12,9 km/h (3 Bft) 97,87 %
19.11.2023 09:02 11,3 C 10,6 C 7,2 C 92 % 1010,3 hPa 0,0 l/m 0 min 0 min 33 W/m 22,5 km/h (4 Bft) 95,74 %
19.11.2023 09:04 11,3 C 10,6 C 7,2 C 92 % 1010,3 hPa 0,0 l/m 0 min 0 min 34 W/m 25,7 km/h (4 Bft) 96,00 %
19.11.2023 09:05 11,3 C 10,6 C 7,2 C 92 % 1010,2 hPa 0,0 l/m 0 min 0 min 35 W/m 25,7 km/h (4 Bft) 98,25 %
19.11.2023 09:10 11,4 C 11,1 C 7,8 C 92 % 1010,4 hPa 0,0 l/m 0 min 0 min 41 W/m 22,5 km/h (4 Bft) 98,04 %
19.11.2023 09:12 11,4 C 11,1 C 7,8 C 91 % 1010,5 hPa 0,0 l/m 0 min 0 min 50 W/m 16,1 km/h (3 Bft) 97,87 %
19.11.2023 09:14 11,4 C 11,1 C 7,8 C 92 % 1010,6 hPa 0,0 l/m 0 min 0 min 73 W/m 22,5 km/h (4 Bft) 95,74 %
19.11.2023 09:16 11,4 C 11,1 C 7,8 C 92 % 1010,6 hPa 0,0 l/m 0 min 0 min 70 W/m 12,9 km/h (3 Bft) 95,74 %
19.11.2023 09:18 11,4 C 11,1 C 7,8 C 92 % 1010,6 hPa 0,0 l/m 0 min 0 min 68 W/m 22,5 km/h (4 Bft) 94,34 %
19.11.2023 09:20 11,5 C 11,1 C 7,8 C 92 % 1010,7 hPa 0,0 l/m 2 min 0 min 103 W/m 16,1 km/h (3 Bft) 97,87 %
19.11.2023 09:22 11,6 C 11,1 C 8,3 C 92 % 1010,7 hPa 0,0 l/m 2 min 0 min 89 W/m 19,3 km/h (3 Bft) 97,87 %
19.11.2023 09:24 11,6 C 11,1 C 8,3 C 92 % 1010,6 hPa 0,0 l/m 0 min 0 min 45 W/m 22,5 km/h (4 Bft) 93,62 %
19.11.2023 09:26 11,6 C 11,1 C 8,3 C 92 % 1010,7 hPa 0,0 l/m 0 min 0 min 29 W/m 29,0 km/h (5 Bft) 95,65 %
19.11.2023 09:28 11,7 C 11,1 C 8,3 C 91 % 1010,6 hPa 0,0 l/m 0 min 0 min 32 W/m 25,7 km/h (4 Bft) 97,87 %
19.11.2023 09:30 11,7 C 11,1 C 8,3 C 91 % 1010,5 hPa 0,0 l/m 0 min 0 min 45 W/m 22,5 km/h (4 Bft) 97,87 %
19.11.2023 09:32 11,6 C 11,1 C 8,3 C 91 % 1010,6 hPa 0,0 l/m 2 min 0 min 91 W/m 19,3 km/h (3 Bft) 97,87 %
19.11.2023 09:34 11,6 C 11,1 C 8,3 C 91 % 1010,7 hPa 0,0 l/m 0 min 0 min 90 W/m 19,3 km/h (3 Bft) 97,87 %
19.11.2023 09:36 11,7 C 11,1 C 8,3 C 91 % 1010,6 hPa 0,0 l/m 2 min 0 min 105 W/m 19,3 km/h (3 Bft) 97,87 %
19.11.2023 09:38 11,7 C 11,7 C 8,3 C 91 % 1010,6 hPa 0,0 l/m 2 min 0 min 121 W/m 22,5 km/h (4 Bft) 97,14 %
19.11.2023 09:40 11,7 C 11,7 C 8,3 C 91 % 1010,6 hPa 0,0 l/m 2 min 0 min 117 W/m 29,0 km/h (5 Bft) 94,92 %
19.11.2023 09:42 11,7 C 11,1 C 8,3 C 91 % 1010,6 hPa 0,0 l/m 0 min 0 min 64 W/m 16,1 km/h (3 Bft) 97,83 %
19.11.2023 09:44 11,7 C 11,1 C 8,3 C 91 % 1010,7 hPa 0,0 l/m 0 min 0 min 37 W/m 19,3 km/h (3 Bft) 93,62 %
19.11.2023 09:46 11,7 C 11,7 C 8,3 C 91 % 1010,6 hPa 0,0 l/m 0 min 0 min 48 W/m 22,5 km/h (4 Bft) 97,87 %
19.11.2023 09:48 11,7 C 11,7 C 8,3 C 91 % 1010,6 hPa 0,0 l/m 2 min 0 min 132 W/m 19,3 km/h (3 Bft) 94,29 %
19.11.2023 09:50 11,8 C 11,7 C 8,3 C 91 % 1010,7 hPa 0,0 l/m 2 min 0 min 138 W/m 16,1 km/h (3 Bft) 94,92 %
19.11.2023 09:52 11,8 C 11,7 C 8,3 C 91 % 1010,7 hPa 0,0 l/m 2 min 0 min 142 W/m 22,5 km/h (4 Bft) 100,00 %
19.11.2023 09:54 11,8 C 11,7 C 8,9 C 91 % 1010,7 hPa 0,0 l/m 2 min 0 min 146 W/m 35,4 km/h (5 Bft) 97,87 %
19.11.2023 09:56 11,8 C 11,7 C 8,9 C 91 % 1010,7 hPa 0,0 l/m 0 min 0 min 103 W/m 19,3 km/h (3 Bft) 97,87 %
19.11.2023 09:58 11,8 C 11,7 C 8,9 C 90 % 1010,7 hPa 0,0 l/m 2 min 0 min 142 W/m 25,7 km/h (4 Bft) 97,62 %
19.11.2023 10:00 11,9 C 11,7 C 8,9 C 90 % 1010,7 hPa 0,0 l/m 2 min 0 min 134 W/m 25,7 km/h (4 Bft) 95,74 %
19.11.2023 10:02 12,0 C 11,7 C 8,9 C 90 % 1010,7 hPa 0,0 l/m 2 min 0 min 146 W/m 29,0 km/h (5 Bft) 97,87 %
19.11.2023 10:04 12,1 C 12,2 C 8,9 C 90 % 1010,8 hPa 0,0 l/m 2 min 0 min 126 W/m 9,7 km/h (2 Bft) 96,08 %
19.11.2023 10:08 12,1 C 12,2 C 8,9 C 90 % 1010,7 hPa 0,0 l/m 4 min 0 min 153 W/m 19,3 km/h (3 Bft) 97,92 %
19.11.2023 10:09 12,1 C 12,2 C 8,9 C 90 % 1010,7 hPa 0,0 l/m 1 min 0 min 179 W/m 22,5 km/h (4 Bft) 100,00 %
19.11.2023 10:10 12,1 C 12,2 C 8,9 C 90 % 1010,7 hPa 0,0 l/m 1 min 0 min 168 W/m 22,5 km/h (4 Bft) 100,00 %
19.11.2023 10:14 12,2 C 12,2 C 8,9 C 90 % 1010,8 hPa 0,0 l/m 4 min 0 min 164 W/m 16,1 km/h (3 Bft) 97,92 %
19.11.2023 10:16 12,3 C 12,2 C 9,4 C 89 % 1010,7 hPa 0,0 l/m 2 min 0 min 181 W/m 22,5 km/h (4 Bft) 97,87 %
19.11.2023 10:18 12,3 C 12,2 C 9,4 C 89 % 1010,7 hPa 0,0 l/m 2 min 0 min 174 W/m 12,9 km/h (3 Bft) 95,65 %
19.11.2023 10:20 12,3 C 12,2 C 9,4 C 89 % 1010,8 hPa 0,0 l/m 0 min 0 min 114 W/m 32,2 km/h (5 Bft) 95,74 %
19.11.2023 10:22 12,3 C 12,2 C 9,4 C 89 % 1010,7 hPa 0,0 l/m 0 min 0 min 112 W/m 25,7 km/h (4 Bft) 97,87 %
19.11.2023 10:24 12,4 C 12,2 C 9,4 C 89 % 1010,7 hPa 0,0 l/m 0 min 0 min 105 W/m 16,1 km/h (3 Bft) 97,87 %
19.11.2023 10:26 12,4 C 12,2 C 9,4 C 89 % 1010,7 hPa 0,0 l/m 0 min 0 min 101 W/m 35,4 km/h (5 Bft) 95,74 %
19.11.2023 10:28 12,4 C 12,2 C 9,4 C 89 % 1010,7 hPa 0,0 l/m 0 min 0 min 76 W/m 22,5 km/h (4 Bft) 97,87 %
19.11.2023 10:30 12,4 C 12,2 C 9,4 C 88 % 1010,6 hPa 0,0 l/m 0 min 0 min 75 W/m 25,7 km/h (4 Bft) 97,87 %
19.11.2023 10:32 12,4 C 12,2 C 9,4 C 88 % 1010,6 hPa 0,0 l/m 0 min 0 min 116 W/m 22,5 km/h (4 Bft) 97,83 %
19.11.2023 10:34 12,4 C 12,2 C 9,4 C 88 % 1010,7 hPa 0,0 l/m 2 min 0 min 151 W/m 19,3 km/h (3 Bft) 97,87 %
19.11.2023 10:36 12,4 C 12,2 C 9,4 C 88 % 1010,7 hPa 0,0 l/m 0 min 0 min 108 W/m 32,2 km/h (5 Bft) 95,74 %
19.11.2023 10:38 12,4 C 12,2 C 9,4 C 88 % 1010,8 hPa 0,0 l/m 0 min 0 min 122 W/m 41,8 km/h (6 Bft) 97,87 %
19.11.2023 10:40 12,4 C 12,2 C 9,4 C 88 % 1010,7 hPa 0,0 l/m 0 min 0 min 106 W/m 19,3 km/h (3 Bft) 97,87 %
19.11.2023 10:42 12,5 C 12,2 C 9,4 C 88 % 1010,8 hPa 0,0 l/m 0 min 0 min 94 W/m 29,0 km/h (5 Bft) 97,87 %
19.11.2023 10:44 12,5 C 12,2 C 9,4 C 88 % 1010,6 hPa 0,0 l/m 0 min 0 min 82 W/m 41,8 km/h (6 Bft) 97,87 %
19.11.2023 10:46 12,5 C 12,2 C 9,4 C 88 % 1010,8 hPa 0,0 l/m 0 min 0 min 75 W/m 25,7 km/h (4 Bft) 95,74 %
19.11.2023 10:48 12,5 C 12,2 C 9,4 C 88 % 1010,8 hPa 0,0 l/m 0 min 0 min 77 W/m 25,7 km/h (4 Bft) 97,83 %
19.11.2023 10:50 12,5 C 12,2 C 9,4 C 88 % 1010,7 hPa 0,0 l/m 0 min 0 min 81 W/m 19,3 km/h (3 Bft) 97,87 %
19.11.2023 10:52 12,5 C 12,2 C 9,4 C 88 % 1010,8 hPa 0,0 l/m 0 min 0 min 95 W/m 19,3 km/h (3 Bft) 97,87 %
19.11.2023 10:54 12,6 C 12,8 C 9,4 C 88 % 1010,6 hPa 0,0 l/m 2 min 0 min 147 W/m 19,3 km/h (3 Bft) 97,87 %
19.11.2023 10:56 12,6 C 12,8 C 9,4 C 88 % 1010,7 hPa 0,0 l/m 2 min 0 min 182 W/m 25,7 km/h (4 Bft) 100,00 %
19.11.2023 10:58 12,6 C 12,8 C 9,4 C 87 % 1010,7 hPa 0,0 l/m 0 min 0 min 144 W/m 19,3 km/h (3 Bft) 100,00 %
19.11.2023 11:00 12,7 C 12,8 C 9,4 C 87 % 1010,6 hPa 0,0 l/m 2 min 0 min 156 W/m 19,3 km/h (3 Bft) 100,00 %
19.11.2023 11:02 12,7 C 12,8 C 10,0 C 87 % 1010,6 hPa 0,0 l/m 2 min 0 min 156 W/m 19,3 km/h (3 Bft) 100,00 %
19.11.2023 11:04 12,8 C 12,8 C 10,0 C 87 % 1010,6 hPa 0,0 l/m 0 min 0 min 120 W/m 35,4 km/h (5 Bft) 97,87 %
19.11.2023 11:08 12,8 C 12,8 C 10,0 C 87 % 1010,6 hPa 0,0 l/m 0 min 0 min 125 W/m 25,7 km/h (4 Bft) 100,00 %
19.11.2023 11:09 12,9 C 12,8 C 10,0 C 87 % 1010,7 hPa 0,0 l/m 0 min 0 min 75 W/m 19,3 km/h (3 Bft) 100,00 %
19.11.2023 11:12 12,9 C 12,8 C 9,4 C 86 % 1010,6 hPa 0,0 l/m 0 min 0 min 69 W/m 25,7 km/h (4 Bft) 95,77 %
19.11.2023 11:14 12,8 C 12,2 C 9,4 C 86 % 1010,6 hPa 0,0 l/m 0 min 0 min 60 W/m 16,1 km/h (3 Bft) 100,00 %
19.11.2023 11:16 12,8 C 12,2 C 9,4 C 86 % 1010,5 hPa 0,0 l/m 0 min 0 min 59 W/m 29,0 km/h (5 Bft) 93,48 %
19.11.2023 11:18 12,8 C 12,2 C 9,4 C 86 % 1010,5 hPa 0,0 l/m 0 min 0 min 60 W/m 38,6 km/h (5 Bft) 97,87 %
19.11.2023 11:20 12,8 C 12,2 C 9,4 C 86 % 1010,6 hPa 0,0 l/m 0 min 0 min 63 W/m 16,1 km/h (3 Bft) 97,87 %
19.11.2023 11:22 12,8 C 12,2 C 9,4 C 86 % 1010,5 hPa 0,0 l/m 0 min 0 min 63 W/m 35,4 km/h (5 Bft) 97,87 %
19.11.2023 11:24 12,8 C 12,2 C 9,4 C 85 % 1010,7 hPa 0,0 l/m 0 min 0 min 61 W/m 38,6 km/h (5 Bft) 95,83 %
19.11.2023 11:26 12,8 C 12,8 C 9,4 C 85 % 1010,5 hPa 0,0 l/m 0 min 0 min 88 W/m 22,5 km/h (4 Bft) 97,87 %
19.11.2023 11:28 12,8 C 12,8 C 9,4 C 86 % 1010,6 hPa 0,0 l/m 0 min 0 min 84 W/m 38,6 km/h (5 Bft) 97,87 %
19.11.2023 11:30 12,9 C 12,8 C 9,4 C 85 % 1010,5 hPa 0,0 l/m 0 min 0 min 116 W/m 45,1 km/h (6 Bft) 97,87 %
19.11.2023 11:32 12,9 C 12,8 C 10,0 C 86 % 1010,5 hPa 0,0 l/m 0 min 0 min 131 W/m 19,3 km/h (3 Bft) 97,87 %
19.11.2023 11:34 13,0 C 12,8 C 10,0 C 85 % 1010,6 hPa 0,0 l/m 0 min 0 min 100 W/m 22,5 km/h (4 Bft) 95,65 %
19.11.2023 11:36 13,0 C 12,8 C 10,0 C 85 % 1010,6 hPa 0,0 l/m 0 min 0 min 114 W/m 19,3 km/h (3 Bft) 97,87 %
19.11.2023 11:38 13,0 C 12,8 C 10,0 C 85 % 1010,7 hPa 0,0 l/m 0 min 0 min 107 W/m 29,0 km/h (5 Bft) 97,87 %
19.11.2023 11:40 13,0 C 12,8 C 9,4 C 85 % 1010,6 hPa 0,0 l/m 0 min 0 min 94 W/m 19,3 km/h (3 Bft) 97,87 %
19.11.2023 11:42 13,0 C 12,8 C 9,4 C 85 % 1010,7 hPa 0,0 l/m 0 min 0 min 91 W/m 19,3 km/h (3 Bft) 95,74 %
19.11.2023 11:44 12,9 C 12,8 C 9,4 C 85 % 1010,6 hPa 0,0 l/m 0 min 0 min 67 W/m 25,7 km/h (4 Bft) 95,74 %
19.11.2023 11:46 12,9 C 12,2 C 9,4 C 85 % 1010,5 hPa 0,0 l/m 0 min 0 min 62 W/m 38,6 km/h (5 Bft) 97,87 %
19.11.2023 11:48 12,9 C 12,2 C 9,4 C 85 % 1010,6 hPa 0,0 l/m 0 min 0 min 73 W/m 29,0 km/h (5 Bft) 97,83 %
19.11.2023 11:50 12,9 C 12,2 C 9,4 C 85 % 1010,6 hPa 0,0 l/m 0 min 0 min 89 W/m 25,7 km/h (4 Bft) 95,74 %
19.11.2023 11:52 12,8 C 12,2 C 9,4 C 85 % 1010,6 hPa 0,0 l/m 0 min 0 min 75 W/m 19,3 km/h (3 Bft) 97,87 %
19.11.2023 11:54 12,8 C 12,2 C 9,4 C 85 % 1010,6 hPa 0,0 l/m 0 min 0 min 61 W/m 19,3 km/h (3 Bft) 97,87 %
19.11.2023 11:56 12,8 C 12,2 C 9,4 C 85 % 1010,6 hPa 0,0 l/m 0 min 0 min 66 W/m 25,7 km/h (4 Bft) 95,74 %
19.11.2023 11:58 12,8 C 12,2 C 9,4 C 85 % 1010,6 hPa 0,0 l/m 0 min 0 min 92 W/m 22,5 km/h (4 Bft) 100,00 %
19.11.2023 12:00 12,8 C 12,8 C 9,4 C 85 % 1010,6 hPa 0,0 l/m 0 min 0 min 132 W/m 25,7 km/h (4 Bft) 100,00 %
19.11.2023 12:02 12,9 C 12,8 C 9,4 C 85 % 1010,5 hPa 0,0 l/m 0 min 0 min 125 W/m 25,7 km/h (4 Bft) 100,00 %
19.11.2023 12:04 12,9 C 12,8 C 9,4 C 85 % 1010,5 hPa 0,0 l/m 0 min 0 min 104 W/m 25,7 km/h (4 Bft) 98,11 %
19.11.2023 12:08 13,0 C 12,8 C 9,4 C 84 % 1010,5 hPa 0,0 l/m 0 min 0 min 98 W/m 22,5 km/h (4 Bft) 98,78 %
19.11.2023 12:10 13,0 C 12,8 C 9,4 C 84 % 1010,6 hPa 0,0 l/m 0 min 0 min 103 W/m 25,7 km/h (4 Bft) 100,00 %
19.11.2023 12:12 13,1 C 12,8 C 9,4 C 84 % 1010,5 hPa 0,0 l/m 0 min 0 min 116 W/m 25,7 km/h (4 Bft) 100,00 %
19.11.2023 12:16 13,1 C 12,8 C 10,0 C 84 % 1010,6 hPa 0,0 l/m 0 min 0 min 121 W/m 32,2 km/h (5 Bft) 98,94 %
19.11.2023 12:18 13,1 C 12,8 C 10,0 C 84 % 1010,6 hPa 0,0 l/m 0 min 0 min 86 W/m 19,3 km/h (3 Bft) 97,83 %
19.11.2023 12:20 13,1 C 12,8 C 9,4 C 84 % 1010,5 hPa 0,0 l/m 0 min 0 min 91 W/m 19,3 km/h (3 Bft) 100,00 %
19.11.2023 12:22 13,1 C 12,8 C 9,4 C 84 % 1010,5 hPa 0,0 l/m 0 min 0 min 121 W/m 25,7 km/h (4 Bft) 95,74 %
19.11.2023 12:24 13,2 C 12,8 C 9,4 C 84 % 1010,4 hPa 0,0 l/m 0 min 0 min 90 W/m 19,3 km/h (3 Bft) 100,00 %
19.11.2023 12:26 13,2 C 12,8 C 9,4 C 84 % 1010,5 hPa 0,0 l/m 0 min 0 min 79 W/m 25,7 km/h (4 Bft) 97,87 %
19.11.2023 12:28 13,2 C 12,8 C 9,4 C 84 % 1010,4 hPa 0,0 l/m 0 min 0 min 85 W/m 29,0 km/h (5 Bft) 95,74 %
19.11.2023 12:30 13,2 C 12,8 C 9,4 C 84 % 1010,4 hPa 0,0 l/m 0 min 0 min 58 W/m 22,5 km/h (4 Bft) 95,74 %
19.11.2023 12:32 13,2 C 12,8 C 9,4 C 84 % 1010,3 hPa 0,0 l/m 0 min 0 min 59 W/m 22,5 km/h (4 Bft) 95,65 %
19.11.2023 12:34 13,1 C 12,8 C 9,4 C 83 % 1010,4 hPa 0,0 l/m 0 min 0 min 73 W/m 25,7 km/h (4 Bft) 95,74 %
19.11.2023 12:36 13,1 C 12,8 C 9,4 C 83 % 1010,4 hPa 0,0 l/m 0 min 0 min 99 W/m 22,5 km/h (4 Bft) 95,74 %
19.11.2023 12:38 13,1 C 12,8 C 9,4 C 83 % 1010,4 hPa 0,0 l/m 0 min 0 min 87 W/m 25,7 km/h (4 Bft) 93,62 %
19.11.2023 12:40 13,1 C 12,8 C 9,4 C 83 % 1010,3 hPa 0,0 l/m 0 min 0 min 70 W/m 19,3 km/h (3 Bft) 93,62 %
19.11.2023 12:42 13,1 C 12,8 C 9,4 C 83 % 1010,3 hPa 0,0 l/m 0 min 0 min 56 W/m 16,1 km/h (3 Bft) 93,62 %
19.11.2023 12:44 13,1 C 12,8 C 9,4 C 84 % 1010,3 hPa 0,0 l/m 0 min 0 min 72 W/m 12,9 km/h (3 Bft) 95,65 %
19.11.2023 12:46 13,1 C 12,8 C 9,4 C 84 % 1010,3 hPa 0,0 l/m 0 min 0 min 69 W/m 12,9 km/h (3 Bft) 93,62 %
19.11.2023 12:48 13,1 C 12,8 C 9,4 C 84 % 1010,2 hPa 0,0 l/m 0 min 0 min 74 W/m 19,3 km/h (3 Bft) 95,74 %
19.11.2023 12:50 13,1 C 12,8 C 9,4 C 84 % 1010,2 hPa 0,0 l/m 0 min 0 min 76 W/m 16,1 km/h (3 Bft) 93,62 %
19.11.2023 12:52 13,0 C 12,8 C 9,4 C 84 % 1010,2 hPa 0,0 l/m 0 min 0 min 101 W/m 19,3 km/h (3 Bft) 95,74 %
19.11.2023 12:54 13,1 C 12,8 C 9,4 C 84 % 1010,2 hPa 0,0 l/m 0 min 0 min 108 W/m 29,0 km/h (5 Bft) 95,74 %
19.11.2023 12:56 13,1 C 13,3 C 9,4 C 83 % 1010,2 hPa 0,0 l/m 0 min 0 min 130 W/m 25,7 km/h (4 Bft) 95,74 %
19.11.2023 12:58 13,1 C 13,3 C 9,4 C 83 % 1010,3 hPa 0,0 l/m 2 min 0 min 174 W/m 19,3 km/h (3 Bft) 93,62 %
19.11.2023 13:00 13,2 C 13,9 C 10,0 C 83 % 1010,2 hPa 0,0 l/m 2 min 0 min 221 W/m 22,5 km/h (4 Bft) 95,65 %
19.11.2023 13:02 13,3 C 14,4 C 10,0 C 83 % 1010,2 hPa 0,0 l/m 2 min 0 min 202 W/m 19,3 km/h (3 Bft) 97,87 %
19.11.2023 13:04 13,4 C 15,0 C 10,0 C 83 % 1010,2 hPa 0,0 l/m 2 min 0 min 210 W/m 19,3 km/h (3 Bft) 98,11 %
19.11.2023 13:08 13,6 C 16,1 C 10,0 C 83 % 1010,2 hPa 0,0 l/m 4 min 0 min 173 W/m 38,6 km/h (5 Bft) 97,89 %
19.11.2023 13:09 13,6 C 15,6 C 10,0 C 83 % 1010,1 hPa 0,0 l/m 1 min 0 min 162 W/m 32,2 km/h (5 Bft) 95,65 %
19.11.2023 13:12 13,6 C 15,6 C 10,0 C 82 % 1010,0 hPa 0,0 l/m 3 min 0 min 196 W/m 29,0 km/h (5 Bft) 98,61 %
19.11.2023 13:14 13,7 C 15,6 C 10,0 C 82 % 1010,0 hPa 0,0 l/m 2 min 0 min 195 W/m 25,7 km/h (4 Bft) 100,00 %
19.11.2023 13:16 13,7 C 14,4 C 10,0 C 82 % 1010,0 hPa 0,0 l/m 2 min 0 min 192 W/m 19,3 km/h (3 Bft) 100,00 %
19.11.2023 13:18 13,7 C 14,4 C 10,0 C 82 % 1010,0 hPa 0,0 l/m 0 min 0 min 149 W/m 16,1 km/h (3 Bft) 100,00 %
19.11.2023 13:20 13,6 C 13,9 C 10,0 C 82 % 1010,1 hPa 0,0 l/m 0 min 0 min 133 W/m 32,2 km/h (5 Bft) 100,00 %
19.11.2023 13:22 13,6 C 13,3 C 10,0 C 82 % 1009,9 hPa 0,0 l/m 0 min 0 min 149 W/m 38,6 km/h (5 Bft) 100,00 %
19.11.2023 13:24 13,6 C 13,3 C 10,0 C 82 % 1009,9 hPa 0,0 l/m 2 min 0 min 162 W/m 25,7 km/h (4 Bft) 100,00 %
19.11.2023 13:26 13,5 C 13,3 C 10,0 C 82 % 1009,9 hPa 0,0 l/m 0 min 0 min 128 W/m 32,2 km/h (5 Bft) 97,87 %
19.11.2023 13:28 13,4 C 12,8 C 9,4 C 82 % 1010,0 hPa 0,0 l/m 0 min 0 min 94 W/m 35,4 km/h (5 Bft) 100,00 %
19.11.2023 13:30 13,4 C 12,8 C 9,4 C 82 % 1010,1 hPa 0,0 l/m 0 min 0 min 65 W/m 29,0 km/h (5 Bft) 100,00 %
19.11.2023 13:32 13,4 C 12,8 C 9,4 C 83 % 1009,9 hPa 0,0 l/m 0 min 0 min 45 W/m 25,7 km/h (4 Bft) 100,00 %
19.11.2023 13:34 13,3 C 12,8 C 9,4 C 83 % 1009,9 hPa 0,0 l/m 0 min 2 min 70 W/m 22,5 km/h (4 Bft) 100,00 %
19.11.2023 13:36 13,3 C 12,8 C 8,9 C 84 % 1010,0 hPa 0,0 l/m 0 min 2 min 104 W/m 25,7 km/h (4 Bft) 100,00 %
19.11.2023 13:38 13,2 C 12,8 C 8,9 C 85 % 1010,0 hPa 0,0 l/m 2 min 2 min 150 W/m 19,3 km/h (3 Bft) 100,00 %
19.11.2023 13:40 13,2 C 13,3 C 8,9 C 85 % 1009,8 hPa 0,0 l/m 2 min 2 min 236 W/m 35,4 km/h (5 Bft) 97,87 %
19.11.2023 13:42 13,1 C 13,3 C 8,9 C 85 % 1009,8 hPa 0,0 l/m 2 min 2 min 192 W/m 22,5 km/h (4 Bft) 100,00 %
19.11.2023 13:44 13,1 C 13,3 C 8,9 C 85 % 1009,8 hPa 0,0 l/m 2 min 2 min 257 W/m 22,5 km/h (4 Bft) 100,00 %
19.11.2023 13:46 13,1 C 13,9 C 9,4 C 86 % 1009,7 hPa 0,0 l/m 2 min 0 min 216 W/m 16,1 km/h (3 Bft) 100,00 %
19.11.2023 13:48 13,1 C 13,3 C 9,4 C 86 % 1009,8 hPa 0,0 l/m 2 min 0 min 201 W/m 16,1 km/h (3 Bft) 97,87 %
19.11.2023 13:50 13,2 C 13,9 C 9,4 C 86 % 1009,8 hPa 0,0 l/m 2 min 0 min 175 W/m 16,1 km/h (3 Bft) 100,00 %
19.11.2023 13:52 13,2 C 13,9 C 9,4 C 86 % 1009,8 hPa 0,0 l/m 2 min 0 min 167 W/m 19,3 km/h (3 Bft) 95,65 %
19.11.2023 13:54 13,2 C 14,4 C 9,4 C 86 % 1009,8 hPa 0,0 l/m 2 min 0 min 279 W/m 16,1 km/h (3 Bft) 97,87 %
19.11.2023 13:56 13,3 C 13,9 C 9,4 C 86 % 1009,8 hPa 0,0 l/m 2 min 0 min 241 W/m 16,1 km/h (3 Bft) 94,12 %
19.11.2023 13:58 13,3 C 13,9 C 9,4 C 86 % 1009,9 hPa 0,0 l/m 2 min 0 min 231 W/m 19,3 km/h (3 Bft) 97,62 %
19.11.2023 14:00 13,3 C 13,9 C 9,4 C 86 % 1009,9 hPa 0,0 l/m 2 min 0 min 228 W/m 22,5 km/h (4 Bft) 95,74 %
19.11.2023 14:02 13,3 C 13,9 C 9,4 C 86 % 1010,0 hPa 0,0 l/m 2 min 0 min 203 W/m 29,0 km/h (5 Bft) 95,74 %
19.11.2023 14:04 13,3 C 14,4 C 9,4 C 86 % 1010,0 hPa 0,0 l/m 2 min 0 min 176 W/m 22,5 km/h (4 Bft) 98,04 %
19.11.2023 14:08 13,3 C 14,4 C 9,4 C 86 % 1010,0 hPa 0,0 l/m 4 min 0 min 249 W/m 25,7 km/h (4 Bft) 97,59 %
19.11.2023 14:09 13,3 C 14,4 C 9,4 C 86 % 1010,0 hPa 0,0 l/m 1 min 0 min 230 W/m 6,4 km/h (2 Bft) 95,83 %
19.11.2023 14:10 13,3 C 14,4 C 9,4 C 86 % 1010,0 hPa 0,0 l/m 1 min 0 min 198 W/m 25,7 km/h (4 Bft) 100,00 %
19.11.2023 14:14 13,4 C 13,9 C 9,4 C 86 % 1010,0 hPa 0,0 l/m 4 min 0 min 222 W/m 19,3 km/h (3 Bft) 97,87 %
19.11.2023 14:16 13,3 C 13,3 C 9,4 C 86 % 1009,9 hPa 0,0 l/m 2 min 0 min 172 W/m 25,7 km/h (4 Bft) 95,74 %
19.11.2023 14:18 13,4 C 13,9 C 9,4 C 85 % 1010,1 hPa 0,0 l/m 2 min 0 min 186 W/m 19,3 km/h (3 Bft) 97,83 %
19.11.2023 14:20 13,4 C 13,3 C 9,4 C 85 % 1010,1 hPa 0,0 l/m 2 min 0 min 150 W/m 29,0 km/h (5 Bft) 97,87 %
19.11.2023 14:22 13,3 C 13,9 C 9,4 C 85 % 1010,1 hPa 0,0 l/m 2 min 0 min 216 W/m 19,3 km/h (3 Bft) 97,87 %
19.11.2023 14:24 13,4 C 13,3 C 9,4 C 85 % 1010,0 hPa 0,0 l/m 2 min 0 min 186 W/m 19,3 km/h (3 Bft) 97,87 %
19.11.2023 14:26 13,4 C 13,3 C 9,4 C 85 % 1010,0 hPa 0,0 l/m 2 min 0 min 136 W/m 12,9 km/h (3 Bft) 97,87 %
19.11.2023 14:28 13,4 C 13,3 C 9,4 C 85 % 1010,0 hPa 0,0 l/m 2 min 0 min 125 W/m 19,3 km/h (3 Bft) 93,62 %
19.11.2023 14:30 13,3 C 13,3 C 9,4 C 85 % 1010,0 hPa 0,0 l/m 2 min 0 min 153 W/m 25,7 km/h (4 Bft) 97,87 %
19.11.2023 14:32 13,3 C 13,3 C 9,4 C 85 % 1010,0 hPa 0,0 l/m 2 min 0 min 185 W/m 29,0 km/h (5 Bft) 97,83 %
19.11.2023 14:34 13,3 C 13,3 C 9,4 C 85 % 1009,8 hPa 0,0 l/m 2 min 0 min 148 W/m 19,3 km/h (3 Bft) 97,87 %
19.11.2023 14:36 13,3 C 13,3 C 9,4 C 85 % 1009,8 hPa 0,0 l/m 2 min 0 min 117 W/m 19,3 km/h (3 Bft) 100,00 %
19.11.2023 14:38 13,3 C 13,3 C 9,4 C 85 % 1009,9 hPa 0,0 l/m 0 min 0 min 103 W/m 22,5 km/h (4 Bft) 97,87 %
19.11.2023 14:40 13,3 C 12,8 C 9,4 C 85 % 1009,8 hPa 0,0 l/m 0 min 0 min 85 W/m 16,1 km/h (3 Bft) 97,87 %
19.11.2023 14:42 13,3 C 12,8 C 9,4 C 85 % 1009,8 hPa 0,0 l/m 0 min 0 min 69 W/m 25,7 km/h (4 Bft) 97,87 %
19.11.2023 14:44 13,3 C 12,8 C 9,4 C 84 % 1009,8 hPa 0,0 l/m 0 min 0 min 65 W/m 38,6 km/h (5 Bft) 95,74 %
19.11.2023 14:46 13,3 C 12,8 C 9,4 C 84 % 1009,8 hPa 0,0 l/m 0 min 0 min 55 W/m 25,7 km/h (4 Bft) 97,83 %
19.11.2023 14:48 13,2 C 12,8 C 9,4 C 84 % 1009,8 hPa 0,0 l/m 0 min 0 min 41 W/m 19,3 km/h (3 Bft) 97,87 %
19.11.2023 14:50 13,2 C 12,8 C 9,4 C 84 % 1009,8 hPa 0,0 l/m 0 min 0 min 30 W/m 12,9 km/h (3 Bft) 97,87 %
19.11.2023 14:52 13,2 C 12,2 C 9,4 C 85 % 1009,9 hPa 0,0 l/m 0 min 0 min 36 W/m 22,5 km/h (4 Bft) 97,87 %
19.11.2023 14:54 13,1 C 12,2 C 8,9 C 84 % 1009,8 hPa 0,0 l/m 0 min 0 min 40 W/m 25,7 km/h (4 Bft) 93,62 %
19.11.2023 14:56 13,1 C 12,2 C 8,9 C 85 % 1009,8 hPa 0,0 l/m 0 min 2 min 36 W/m 16,1 km/h (3 Bft) 98,00 %
19.11.2023 14:58 13,1 C 12,2 C 8,9 C 85 % 1009,8 hPa 0,0 l/m 0 min 2 min 33 W/m 16,1 km/h (3 Bft) 95,65 %
19.11.2023 15:00 13,1 C 12,2 C 8,9 C 85 % 1009,7 hPa 0,0 l/m 0 min 2 min 51 W/m 19,3 km/h (3 Bft) 98,00 %
19.11.2023 15:02 13,0 C 12,2 C 8,3 C 86 % 1009,8 hPa 0,0 l/m 0 min 2 min 76 W/m 35,4 km/h (5 Bft) 95,74 %
19.11.2023 15:04 13,0 C 12,2 C 8,3 C 86 % 1009,8 hPa 0,0 l/m 0 min 0 min 75 W/m 22,5 km/h (4 Bft) 97,67 %
19.11.2023 15:06 12,9 C 12,2 C 8,3 C 86 % 1009,8 hPa 0,0 l/m 0 min 0 min 64 W/m 12,9 km/h (3 Bft) 98,11 %
19.11.2023 15:08 12,9 C 12,2 C 8,3 C 86 % 1009,7 hPa 0,0 l/m 0 min 0 min 58 W/m 16,1 km/h (3 Bft) 95,74 %
19.11.2023 15:10 12,9 C 12,2 C 8,9 C 86 % 1009,7 hPa 0,0 l/m 0 min 0 min 49 W/m 25,7 km/h (4 Bft) 95,74 %
19.11.2023 15:12 12,9 C 12,2 C 8,9 C 86 % 1009,8 hPa 0,0 l/m 0 min 0 min 34 W/m 25,7 km/h (4 Bft) 95,65 %
19.11.2023 15:14 12,8 C 12,2 C 8,3 C 86 % 1009,7 hPa 0,0 l/m 0 min 2 min 28 W/m 19,3 km/h (3 Bft) 97,87 %
19.11.2023 15:16 12,8 C 12,2 C 8,3 C 86 % 1009,8 hPa 0,0 l/m 0 min 2 min 25 W/m 29,0 km/h (5 Bft) 97,87 %
19.11.2023 15:18 12,8 C 12,2 C 8,3 C 86 % 1009,8 hPa 0,0 l/m 0 min 2 min 25 W/m 16,1 km/h (3 Bft) 97,87 %
19.11.2023 15:20 12,7 C 11,7 C 7,8 C 86 % 1009,6 hPa 0,2 l/m 0 min 2 min 32 W/m 16,1 km/h (3 Bft) 97,87 %
19.11.2023 15:22 12,7 C 11,7 C 7,8 C 86 % 1009,7 hPa 0,0 l/m 0 min 2 min 30 W/m 16,1 km/h (3 Bft) 97,87 %
19.11.2023 15:24 12,6 C 11,7 C 7,2 C 87 % 1009,8 hPa 0,0 l/m 0 min 2 min 25 W/m 16,1 km/h (3 Bft) 95,74 %
19.11.2023 15:26 12,6 C 11,7 C 7,2 C 87 % 1009,8 hPa 0,0 l/m 0 min 2 min 23 W/m 19,3 km/h (3 Bft) 97,83 %
19.11.2023 15:28 12,4 C 11,1 C 7,2 C 88 % 1009,9 hPa 0,0 l/m 0 min 2 min 17 W/m 16,1 km/h (3 Bft) 97,87 %
19.11.2023 15:30 12,4 C 11,1 C 7,2 C 88 % 1009,9 hPa 0,0 l/m 0 min 2 min 13 W/m 19,3 km/h (3 Bft) 97,87 %
19.11.2023 15:32 12,3 C 11,1 C 7,2 C 89 % 1010,0 hPa 0,0 l/m 0 min 2 min 15 W/m 16,1 km/h (3 Bft) 97,87 %
19.11.2023 15:34 12,2 C 10,6 C 7,2 C 89 % 1009,9 hPa 0,2 l/m 0 min 2 min 23 W/m 16,1 km/h (3 Bft) 97,87 %
19.11.2023 15:36 12,1 C 10,6 C 7,2 C 90 % 1009,9 hPa 0,2 l/m 0 min 2 min 24 W/m 12,9 km/h (3 Bft) 97,87 %
19.11.2023 15:38 12,1 C 10,6 C 7,2 C 90 % 1009,9 hPa 0,0 l/m 0 min 2 min 28 W/m 12,9 km/h (3 Bft) 97,87 %
19.11.2023 15:40 12,0 C 10,6 C 7,2 C 91 % 1009,9 hPa 0,0 l/m 0 min 0 min 31 W/m 12,9 km/h (3 Bft) 97,83 %
19.11.2023 15:42 11,9 C 10,6 C 7,2 C 91 % 1009,8 hPa 0,0 l/m 0 min 0 min 27 W/m 12,9 km/h (3 Bft) 97,87 %
19.11.2023 15:44 11,8 C 10,6 C 6,7 C 91 % 1009,8 hPa 0,0 l/m 0 min 0 min 25 W/m 9,7 km/h (2 Bft) 97,87 %
19.11.2023 15:46 11,8 C 10,6 C 6,7 C 92 % 1009,8 hPa 0,0 l/m 0 min 0 min 28 W/m 12,9 km/h (3 Bft) 95,74 %
19.11.2023 15:48 11,7 C 10,6 C 6,7 C 92 % 1009,8 hPa 0,0 l/m 0 min 0 min 32 W/m 12,9 km/h (3 Bft) 97,87 %
19.11.2023 15:50 11,6 C 10,6 C 6,7 C 92 % 1009,7 hPa 0,0 l/m 0 min 0 min 30 W/m 16,1 km/h (3 Bft) 95,74 %
19.11.2023 15:52 11,6 C 10,6 C 6,7 C 92 % 1009,7 hPa 0,0 l/m 0 min 0 min 26 W/m 12,9 km/h (3 Bft) 97,83 %
19.11.2023 15:54 11,6 C 10,6 C 6,7 C 92 % 1009,8 hPa 0,0 l/m 0 min 0 min 20 W/m 16,1 km/h (3 Bft) 97,87 %
19.11.2023 15:56 11,5 C 10,6 C 6,7 C 93 % 1009,8 hPa 0,0 l/m 0 min 0 min 18 W/m 16,1 km/h (3 Bft) 100,00 %
19.11.2023 15:58 11,4 C 10,6 C 6,7 C 93 % 1009,8 hPa 0,0 l/m 0 min 0 min 16 W/m 19,3 km/h (3 Bft) 100,00 %
19.11.2023 16:00 11,4 C 10,6 C 6,7 C 93 % 1009,8 hPa 0,0 l/m 0 min 0 min 14 W/m 19,3 km/h (3 Bft) 97,87 %
19.11.2023 16:02 11,4 C 10,6 C 6,7 C 93 % 1009,8 hPa 0,2 l/m 0 min 2 min 14 W/m 16,1 km/h (3 Bft) 97,83 %
19.11.2023 16:04 11,4 C 10,6 C 6,7 C 93 % 1009,9 hPa 0,0 l/m 0 min 2 min 13 W/m 16,1 km/h (3 Bft) 98,08 %
19.11.2023 16:08 11,4 C 10,6 C 7,2 C 94 % 1009,8 hPa 0,0 l/m 0 min 4 min 30 W/m 16,1 km/h (3 Bft) 100,00 %
19.11.2023 16:10 11,4 C 10,6 C 7,2 C 94 % 1009,8 hPa 0,0 l/m 2 min 2 min 33 W/m 16,1 km/h (3 Bft) 100,00 %
19.11.2023 16:12 11,4 C 10,6 C 7,2 C 94 % 1009,8 hPa 0,0 l/m 2 min 0 min 34 W/m 9,7 km/h (2 Bft) 97,87 %
19.11.2023 16:14 11,4 C 10,6 C 6,7 C 94 % 1009,8 hPa 0,0 l/m 2 min 0 min 30 W/m 12,9 km/h (3 Bft) 98,15 %
19.11.2023 16:16 11,3 C 10,6 C 7,2 C 94 % 1009,8 hPa 0,0 l/m 0 min 0 min 21 W/m 16,1 km/h (3 Bft) 100,00 %
19.11.2023 16:18 11,3 C 10,6 C 7,2 C 94 % 1009,7 hPa 0,0 l/m 0 min 0 min 12 W/m 12,9 km/h (3 Bft) 100,00 %
19.11.2023 16:20 11,3 C 10,6 C 6,7 C 94 % 1009,7 hPa 0,0 l/m 0 min 0 min 8 W/m 16,1 km/h (3 Bft) 100,00 %
19.11.2023 16:22 11,3 C 10,6 C 6,7 C 94 % 1009,7 hPa 0,0 l/m 0 min 0 min 11 W/m 22,5 km/h (4 Bft) 100,00 %
19.11.2023 16:24 11,3 C 10,6 C 6,7 C 94 % 1009,6 hPa 0,0 l/m 0 min 0 min 9 W/m 12,9 km/h (3 Bft) 97,87 %
19.11.2023 16:26 11,3 C 10,6 C 6,7 C 94 % 1009,6 hPa 0,0 l/m 0 min 0 min 11 W/m 22,5 km/h (4 Bft) 100,00 %
19.11.2023 16:28 11,3 C 10,6 C 6,7 C 94 % 1009,5 hPa 0,0 l/m 0 min 0 min 11 W/m 12,9 km/h (3 Bft) 100,00 %
19.11.2023 16:30 11,3 C 10,6 C 6,7 C 94 % 1009,5 hPa 0,0 l/m 0 min 0 min 11 W/m 12,9 km/h (3 Bft) 100,00 %
19.11.2023 16:32 11,2 C 10,6 C 6,7 C 94 % 1009,6 hPa 0,0 l/m 0 min 0 min 11 W/m 16,1 km/h (3 Bft) 100,00 %
19.11.2023 16:34 11,2 C 10,6 C 6,7 C 94 % 1009,6 hPa 0,0 l/m 0 min 0 min 9 W/m 16,1 km/h (3 Bft) 100,00 %
19.11.2023 16:36 11,2 C 10,6 C 6,7 C 94 % 1009,5 hPa 0,0 l/m 0 min 0 min 11 W/m 19,3 km/h (3 Bft) 97,87 %
19.11.2023 16:38 11,2 C 10,6 C 6,7 C 94 % 1009,5 hPa 0,0 l/m 0 min 0 min 11 W/m 19,3 km/h (3 Bft) 95,74 %
19.11.2023 16:40 11,2 C 10,6 C 6,7 C 94 % 1009,5 hPa 0,0 l/m 0 min 0 min 8 W/m 25,7 km/h (4 Bft) 97,87 %
19.11.2023 16:42 11,2 C 10,6 C 6,7 C 94 % 1009,5 hPa 0,0 l/m 0 min 0 min 5 W/m 12,9 km/h (3 Bft) 93,62 %
19.11.2023 16:44 11,2 C 10,6 C 6,7 C 94 % 1009,5 hPa 0,0 l/m 0 min 0 min 5 W/m 12,9 km/h (3 Bft) 95,74 %
19.11.2023 16:46 11,2 C 10,6 C 6,7 C 94 % 1009,5 hPa 0,0 l/m 0 min 0 min 1 W/m 12,9 km/h (3 Bft) 95,65 %
19.11.2023 16:48 11,2 C 10,6 C 6,7 C 94 % 1009,5 hPa 0,0 l/m 0 min 0 min 0 W/m 12,9 km/h (3 Bft) 95,74 %
19.11.2023 16:50 11,2 C 10,6 C 6,7 C 94 % 1009,5 hPa 0,0 l/m 0 min 0 min 0 W/m 19,3 km/h (3 Bft) 93,62 %
19.11.2023 16:52 11,2 C 10,6 C 6,7 C 94 % 1009,5 hPa 0,0 l/m 0 min 0 min 0 W/m 19,3 km/h (3 Bft) 95,74 %
19.11.2023 16:54 11,2 C 10,6 C 6,7 C 94 % 1009,5 hPa 0,0 l/m 0 min 2 min 0 W/m 22,5 km/h (4 Bft) 93,62 %
19.11.2023 16:56 11,2 C 10,6 C 6,7 C 94 % 1009,5 hPa 0,0 l/m 0 min 2 min 0 W/m 22,5 km/h (4 Bft) 95,74 %
19.11.2023 16:58 11,2 C 10,6 C 6,7 C 94 % 1009,4 hPa 0,0 l/m 0 min 0 min 0 W/m 16,1 km/h (3 Bft) 95,74 %
19.11.2023 17:00 11,2 C 10,6 C 6,7 C 94 % 1009,5 hPa 0,0 l/m 0 min 0 min 0 W/m 12,9 km/h (3 Bft) 93,62 %
19.11.2023 17:02 11,2 C 10,6 C 6,7 C 94 % 1009,5 hPa 0,0 l/m 0 min 2 min 0 W/m 22,5 km/h (4 Bft) 93,48 %
19.11.2023 17:04 11,3 C 10,6 C 6,7 C 94 % 1009,7 hPa 0,2 l/m 0 min 2 min 0 W/m 16,1 km/h (3 Bft) 93,48 %
19.11.2023 17:08 11,3 C 10,6 C 6,7 C 94 % 1009,5 hPa 0,0 l/m 0 min 4 min 0 W/m 19,3 km/h (3 Bft) 97,00 %
19.11.2023 17:09 11,3 C 10,6 C 6,7 C 94 % 1009,5 hPa 0,0 l/m 0 min 1 min 0 W/m 19,3 km/h (3 Bft) 95,65 %
19.11.2023 17:10 11,2 C 10,6 C 6,7 C 94 % 1009,5 hPa 0,0 l/m 0 min 1 min 0 W/m 25,7 km/h (4 Bft) 99,12 %
19.11.2023 17:14 11,2 C 10,6 C 6,7 C 94 % 1009,5 hPa 0,0 l/m 0 min 0 min 0 W/m 29,0 km/h (5 Bft) 97,83 %
19.11.2023 17:16 11,2 C 10,6 C 6,7 C 94 % 1009,6 hPa 0,0 l/m 0 min 0 min 0 W/m 29,0 km/h (5 Bft) 97,87 %
19.11.2023 17:18 11,2 C 10,6 C 6,7 C 94 % 1009,5 hPa 0,0 l/m 0 min 0 min 0 W/m 22,5 km/h (4 Bft) 97,87 %
19.11.2023 17:20 11,2 C 10,6 C 6,7 C 94 % 1009,5 hPa 0,0 l/m 0 min 0 min 0 W/m 38,6 km/h (5 Bft) 95,74 %
19.11.2023 17:22 11,2 C 10,6 C 6,7 C 94 % 1009,5 hPa 0,0 l/m 0 min 0 min 0 W/m 45,1 km/h (6 Bft) 95,74 %
19.11.2023 17:24 11,2 C 10,6 C 6,7 C 94 % 1009,5 hPa 0,0 l/m 0 min 0 min 0 W/m 16,1 km/h (3 Bft) 97,87 %
19.11.2023 17:26 11,2 C 10,6 C 6,7 C 94 % 1009,5 hPa 0,0 l/m 0 min 0 min 0 W/m 16,1 km/h (3 Bft) 95,74 %
19.11.2023 17:28 11,2 C 10,6 C 6,7 C 94 % 1009,5 hPa 0,0 l/m 0 min 0 min 0 W/m 22,5 km/h (4 Bft) 97,83 %
19.11.2023 17:30 11,2 C 10,6 C 6,7 C 94 % 1009,5 hPa 0,0 l/m 0 min 0 min 0 W/m 22,5 km/h (4 Bft) 97,87 %
19.11.2023 17:32 11,2 C 10,6 C 6,7 C 94 % 1009,5 hPa 0,0 l/m 0 min 0 min 0 W/m 12,9 km/h (3 Bft) 97,87 %
19.11.2023 17:34 11,2 C 10,6 C 6,7 C 94 % 1009,5 hPa 0,0 l/m 0 min 0 min 0 W/m 12,9 km/h (3 Bft) 97,87 %
19.11.2023 17:36 11,2 C 10,6 C 6,7 C 94 % 1009,5 hPa 0,0 l/m 0 min 0 min 0 W/m 12,9 km/h (3 Bft) 97,87 %
19.11.2023 17:38 11,2 C 10,6 C 6,7 C 94 % 1009,5 hPa 0,0 l/m 0 min 0 min 0 W/m 12,9 km/h (3 Bft) 100,00 %
19.11.2023 17:40 11,2 C 10,6 C 6,7 C 94 % 1009,5 hPa 0,0 l/m 0 min 0 min 0 W/m 16,1 km/h (3 Bft) 100,00 %
19.11.2023 17:42 11,2 C 10,6 C 6,7 C 94 % 1009,5 hPa 0,0 l/m 0 min 2 min 0 W/m 22,5 km/h (4 Bft) 97,83 %
19.11.2023 17:44 11,2 C 10,6 C 6,7 C 94 % 1009,6 hPa 0,0 l/m 0 min 0 min 0 W/m 12,9 km/h (3 Bft) 95,74 %
19.11.2023 17:46 11,2 C 10,6 C 6,7 C 94 % 1009,6 hPa 0,0 l/m 0 min 0 min 0 W/m 16,1 km/h (3 Bft) 97,87 %
19.11.2023 17:48 11,2 C 10,6 C 6,7 C 94 % 1009,6 hPa 0,0 l/m 0 min 2 min 0 W/m 19,3 km/h (3 Bft) 95,74 %
19.11.2023 17:50 11,2 C 10,6 C 6,7 C 94 % 1009,6 hPa 0,0 l/m 0 min 2 min 0 W/m 35,4 km/h (5 Bft) 97,87 %
19.11.2023 17:52 11,2 C 10,6 C 6,7 C 94 % 1009,6 hPa 0,0 l/m 0 min 2 min 0 W/m 19,3 km/h (3 Bft) 97,87 %
19.11.2023 17:54 11,2 C 10,6 C 6,7 C 94 % 1009,7 hPa 0,0 l/m 0 min 0 min 0 W/m 16,1 km/h (3 Bft) 95,74 %
19.11.2023 17:56 11,2 C 10,6 C 6,7 C 94 % 1009,7 hPa 0,0 l/m 0 min 0 min 0 W/m 22,5 km/h (4 Bft) 96,15 %
19.11.2023 17:58 11,2 C 10,6 C 6,7 C 94 % 1009,8 hPa 0,0 l/m 0 min 0 min 0 W/m 19,3 km/h (3 Bft) 97,87 %
19.11.2023 18:00 11,2 C 10,6 C 6,7 C 94 % 1009,8 hPa 0,0 l/m 0 min 2 min 0 W/m 22,5 km/h (4 Bft) 97,83 %
19.11.2023 18:02 11,2 C 10,6 C 6,7 C 94 % 1009,9 hPa 0,2 l/m 0 min 2 min 0 W/m 16,1 km/h (3 Bft) 97,87 %
19.11.2023 18:04 11,2 C 10,6 C 6,7 C 94 % 1009,9 hPa 0,0 l/m 0 min 2 min 0 W/m 19,3 km/h (3 Bft) 97,83 %
19.11.2023 18:08 11,2 C 10,6 C 6,7 C 94 % 1009,8 hPa 0,0 l/m 0 min 4 min 0 W/m 22,5 km/h (4 Bft) 97,87 %
19.11.2023 18:10 11,1 C 10,0 C 6,7 C 94 % 1009,7 hPa 0,0 l/m 0 min 2 min 0 W/m 16,1 km/h (3 Bft) 97,87 %
19.11.2023 18:12 11,1 C 10,0 C 6,7 C 94 % 1009,7 hPa 0,0 l/m 0 min 2 min 0 W/m 22,5 km/h (4 Bft) 97,87 %
19.11.2023 18:16 11,1 C 10,0 C 6,7 C 94 % 1009,7 hPa 0,2 l/m 0 min 4 min 0 W/m 22,5 km/h (4 Bft) 96,77 %
19.11.2023 18:18 11,1 C 10,0 C 6,7 C 94 % 1009,8 hPa 0,0 l/m 0 min 2 min 0 W/m 19,3 km/h (3 Bft) 97,87 %
19.11.2023 18:20 11,1 C 10,0 C 6,7 C 94 % 1009,8 hPa 0,0 l/m 0 min 2 min 0 W/m 12,9 km/h (3 Bft) 97,87 %
19.11.2023 18:22 11,1 C 10,0 C 6,7 C 94 % 1009,7 hPa 0,0 l/m 0 min 2 min 0 W/m 12,9 km/h (3 Bft) 100,00 %
19.11.2023 18:24 11,1 C 10,0 C 6,7 C 94 % 1009,7 hPa 0,0 l/m 0 min 2 min 0 W/m 9,7 km/h (2 Bft) 97,87 %
19.11.2023 18:26 11,0 C 10,0 C 6,7 C 94 % 1009,7 hPa 0,0 l/m 0 min 0 min 0 W/m 3,2 km/h (1 Bft) 97,87 %
19.11.2023 18:28 11,0 C 10,0 C 6,7 C 94 % 1009,6 hPa 0,0 l/m 0 min 0 min 0 W/m 12,9 km/h (3 Bft) 97,83 %
19.11.2023 18:30 11,0 C 10,0 C 6,7 C 94 % 1009,6 hPa 0,2 l/m 0 min 0 min 0 W/m 12,9 km/h (3 Bft) 97,87 %
19.11.2023 18:32 10,9 C 10,0 C 6,7 C 94 % 1009,5 hPa 0,0 l/m 0 min 0 min 0 W/m 19,3 km/h (3 Bft) 97,87 %
19.11.2023 18:34 10,9 C 10,0 C 6,7 C 95 % 1009,5 hPa 0,0 l/m 0 min 0 min 0 W/m 12,9 km/h (3 Bft) 97,87 %
19.11.2023 18:36 10,9 C 10,0 C 6,7 C 95 % 1009,5 hPa 0,0 l/m 0 min 0 min 0 W/m 16,1 km/h (3 Bft) 97,87 %
19.11.2023 18:38 10,9 C 10,0 C 6,7 C 95 % 1009,5 hPa 0,0 l/m 0 min 0 min 0 W/m 12,9 km/h (3 Bft) 97,87 %
19.11.2023 18:40 10,9 C 10,0 C 6,7 C 95 % 1009,5 hPa 0,0 l/m 0 min 0 min 0 W/m 6,4 km/h (2 Bft) 97,87 %
19.11.2023 18:42 10,9 C 10,0 C 6,7 C 95 % 1009,5 hPa 0,0 l/m 0 min 0 min 0 W/m 12,9 km/h (3 Bft) 97,87 %
19.11.2023 18:44 10,9 C 10,0 C 6,7 C 95 % 1009,6 hPa 0,0 l/m 0 min 0 min 0 W/m 12,9 km/h (3 Bft) 97,83 %
19.11.2023 18:46 10,9 C 10,6 C 6,7 C 95 % 1009,6 hPa 0,0 l/m 0 min 0 min 0 W/m 12,9 km/h (3 Bft) 97,87 %
19.11.2023 18:48 10,9 C 10,6 C 6,7 C 95 % 1009,6 hPa 0,0 l/m 0 min 0 min 0 W/m 16,1 km/h (3 Bft) 97,87 %
19.11.2023 18:50 10,9 C 10,6 C 6,7 C 95 % 1009,6 hPa 0,0 l/m 0 min 0 min 0 W/m 16,1 km/h (3 Bft) 97,87 %
19.11.2023 18:52 10,9 C 10,6 C 6,7 C 95 % 1009,6 hPa 0,0 l/m 0 min 0 min 0 W/m 25,7 km/h (4 Bft) 95,74 %
19.11.2023 18:54 11,0 C 10,6 C 6,7 C 94 % 1009,6 hPa 0,0 l/m 0 min 0 min 0 W/m 16,1 km/h (3 Bft) 98,00 %
19.11.2023 18:56 11,0 C 10,6 C 6,7 C 94 % 1009,5 hPa 0,0 l/m 0 min 0 min 0 W/m 16,1 km/h (3 Bft) 100,00 %
19.11.2023 18:58 11,0 C 10,6 C 6,7 C 94 % 1009,5 hPa 0,0 l/m 0 min 0 min 0 W/m 19,3 km/h (3 Bft) 97,87 %
19.11.2023 19:00 11,0 C 10,6 C 6,7 C 94 % 1009,4 hPa 0,0 l/m 0 min 0 min 0 W/m 16,1 km/h (3 Bft) 100,00 %
19.11.2023 19:02 11,1 C 10,6 C 6,7 C 94 % 1009,5 hPa 0,0 l/m 0 min 0 min 0 W/m 16,1 km/h (3 Bft) 100,00 %
19.11.2023 19:04 11,1 C 10,6 C 6,7 C 94 % 1009,5 hPa 0,0 l/m 0 min 0 min 0 W/m 16,1 km/h (3 Bft) 98,00 %
19.11.2023 19:08 11,1 C 10,6 C 6,7 C 94 % 1009,5 hPa 0,0 l/m 0 min 0 min 0 W/m 19,3 km/h (3 Bft) 100,00 %
19.11.2023 19:09 11,1 C 10,6 C 6,7 C 94 % 1009,5 hPa 0,0 l/m 0 min 0 min 0 W/m 16,1 km/h (3 Bft) 100,00 %
19.11.2023 19:12 11,1 C 10,6 C 6,7 C 93 % 1009,5 hPa 0,0 l/m 0 min 0 min 0 W/m 22,5 km/h (4 Bft) 100,00 %
19.11.2023 19:14 11,2 C 10,6 C 6,7 C 93 % 1009,5 hPa 0,0 l/m 0 min 0 min 0 W/m 12,9 km/h (3 Bft) 100,00 %
19.11.2023 19:16 11,2 C 10,6 C 6,7 C 93 % 1009,4 hPa 0,0 l/m 0 min 2 min 0 W/m 12,9 km/h (3 Bft) 100,00 %
19.11.2023 19:18 11,2 C 10,6 C 6,7 C 93 % 1009,4 hPa 0,0 l/m 0 min 2 min 0 W/m 19,3 km/h (3 Bft) 97,87 %
19.11.2023 19:20 11,2 C 10,6 C 6,7 C 93 % 1009,5 hPa 0,0 l/m 0 min 2 min 0 W/m 19,3 km/h (3 Bft) 97,83 %
19.11.2023 19:22 11,2 C 10,0 C 6,7 C 93 % 1009,4 hPa 0,0 l/m 0 min 2 min 0 W/m 16,1 km/h (3 Bft) 100,00 %
19.11.2023 19:24 11,2 C 10,0 C 6,7 C 93 % 1009,6 hPa 0,0 l/m 0 min 2 min 0 W/m 9,7 km/h (2 Bft) 100,00 %
19.11.2023 19:26 11,1 C 10,0 C 6,7 C 93 % 1009,5 hPa 0,0 l/m 0 min 2 min 0 W/m 19,3 km/h (3 Bft) 100,00 %
19.11.2023 19:28 11,1 C 10,0 C 6,7 C 93 % 1009,6 hPa 0,0 l/m 0 min 2 min 0 W/m 12,9 km/h (3 Bft) 97,87 %
19.11.2023 19:30 11,1 C 10,0 C 6,7 C 94 % 1009,5 hPa 0,0 l/m 0 min 0 min 0 W/m 16,1 km/h (3 Bft) 100,00 %
19.11.2023 19:32 11,1 C 10,0 C 6,7 C 94 % 1009,5 hPa 0,0 l/m 0 min 0 min 0 W/m 19,3 km/h (3 Bft) 100,00 %
19.11.2023 19:34 11,0 C 10,0 C 6,7 C 94 % 1009,5 hPa 0,0 l/m 0 min 0 min 0 W/m 25,7 km/h (4 Bft) 97,87 %
19.11.2023 19:36 11,0 C 10,0 C 6,7 C 94 % 1009,5 hPa 0,0 l/m 0 min 0 min 0 W/m 19,3 km/h (3 Bft) 95,65 %
19.11.2023 19:38 10,9 C 10,0 C 6,7 C 94 % 1009,6 hPa 0,0 l/m 0 min 2 min 0 W/m 16,1 km/h (3 Bft) 100,00 %
19.11.2023 19:40 10,9 C 10,0 C 6,7 C 94 % 1009,5 hPa 0,0 l/m 0 min 2 min 0 W/m 16,1 km/h (3 Bft) 97,87 %
19.11.2023 19:42 10,9 C 10,0 C 6,7 C 94 % 1009,5 hPa 0,0 l/m 0 min 2 min 0 W/m 19,3 km/h (3 Bft) 93,62 %
19.11.2023 19:44 10,9 C 10,0 C 6,7 C 94 % 1009,4 hPa 0,0 l/m 0 min 2 min 0 W/m 9,7 km/h (2 Bft) 35,71 %
19.11.2023 19:46 10,9 C 10,0 C 6,7 C 95 % 1009,5 hPa 0,0 l/m 0 min 0 min 0 W/m 16,1 km/h (3 Bft) 97,87 %
19.11.2023 19:48 10,8 C 10,0 C 6,7 C 95 % 1009,4 hPa 0,0 l/m 0 min 0 min 0 W/m 22,5 km/h (4 Bft) 97,87 %
19.11.2023 19:50 10,8 C 10,0 C 6,7 C 95 % 1009,5 hPa 0,0 l/m 0 min 0 min 0 W/m 22,5 km/h (4 Bft) 97,83 %
19.11.2023 19:52 10,8 C 10,0 C 6,7 C 95 % 1009,5 hPa 0,0 l/m 0 min 0 min 0 W/m 25,7 km/h (4 Bft) 95,74 %
19.11.2023 19:54 10,8 C 10,0 C 6,7 C 95 % 1009,5 hPa 0,0 l/m 0 min 2 min 0 W/m 25,7 km/h (4 Bft) 93,62 %
19.11.2023 19:56 10,8 C 10,0 C 6,7 C 95 % 1009,4 hPa 0,0 l/m 0 min 2 min 0 W/m 19,3 km/h (3 Bft) 97,87 %
19.11.2023 19:58 10,8 C 10,0 C 6,7 C 95 % 1009,4 hPa 0,2 l/m 0 min 2 min 0 W/m 25,7 km/h (4 Bft) 97,73 %
19.11.2023 20:00 10,8 C 10,0 C 6,7 C 95 % 1009,4 hPa 0,0 l/m 0 min 2 min 0 W/m 25,7 km/h (4 Bft) 97,87 %
19.11.2023 20:02 10,8 C 10,0 C 6,7 C 95 % 1009,3 hPa 0,0 l/m 0 min 2 min 0 W/m 25,7 km/h (4 Bft) 95,74 %
19.11.2023 20:04 10,8 C 10,0 C 6,7 C 95 % 1009,4 hPa 0,0 l/m 0 min 2 min 0 W/m 12,9 km/h (3 Bft) 98,00 %
19.11.2023 20:08 10,7 C 10,0 C 6,7 C 96 % 1009,3 hPa 0,0 l/m 0 min 4 min 0 W/m 19,3 km/h (3 Bft) 96,43 %
19.11.2023 20:10 10,7 C 10,0 C 6,7 C 96 % 1009,3 hPa 0,0 l/m 0 min 2 min 0 W/m 19,3 km/h (3 Bft) 95,74 %
19.11.2023 20:12 10,7 C 10,0 C 6,7 C 96 % 1009,4 hPa 0,0 l/m 0 min 2 min 0 W/m 25,7 km/h (4 Bft) 95,74 %
19.11.2023 20:14 10,7 C 9,4 C 6,7 C 96 % 1009,2 hPa 0,2 l/m 0 min 2 min 0 W/m 29,0 km/h (5 Bft) 93,62 %
19.11.2023 20:16 10,7 C 9,4 C 6,7 C 96 % 1009,3 hPa 0,0 l/m 0 min 2 min 0 W/m 16,1 km/h (3 Bft) 93,62 %
19.11.2023 20:18 10,7 C 9,4 C 6,7 C 96 % 1009,3 hPa 0,0 l/m 0 min 0 min 0 W/m 25,7 km/h (4 Bft) 93,62 %
19.11.2023 20:20 10,7 C 9,4 C 6,7 C 96 % 1009,3 hPa 0,0 l/m 0 min 0 min 0 W/m 16,1 km/h (3 Bft) 93,48 %
19.11.2023 20:22 10,7 C 9,4 C 6,7 C 96 % 1009,3 hPa 0,0 l/m 0 min 0 min 0 W/m 22,5 km/h (4 Bft) 93,62 %
19.11.2023 20:24 10,7 C 9,4 C 6,7 C 96 % 1009,3 hPa 0,0 l/m 0 min 0 min 0 W/m 22,5 km/h (4 Bft) 93,62 %
19.11.2023 20:26 10,6 C 9,4 C 6,7 C 96 % 1009,3 hPa 0,0 l/m 0 min 2 min 0 W/m 32,2 km/h (5 Bft) 90,57 %
19.11.2023 20:28 10,6 C 9,4 C 6,7 C 96 % 1009,2 hPa 0,0 l/m 0 min 2 min 0 W/m 29,0 km/h (5 Bft) 93,62 %
19.11.2023 20:30 10,6 C 9,4 C 6,7 C 96 % 1009,2 hPa 0,0 l/m 0 min 2 min 0 W/m 29,0 km/h (5 Bft) 91,49 %
19.11.2023 20:32 10,6 C 9,4 C 6,7 C 96 % 1009,2 hPa 0,2 l/m 0 min 2 min 0 W/m 22,5 km/h (4 Bft) 95,65 %
19.11.2023 20:34 10,6 C 9,4 C 6,7 C 96 % 1009,2 hPa 0,0 l/m 0 min 2 min 0 W/m 22,5 km/h (4 Bft) 93,62 %
19.11.2023 20:36 10,6 C 9,4 C 6,7 C 97 % 1009,2 hPa 0,0 l/m 0 min 2 min 0 W/m 25,7 km/h (4 Bft) 93,62 %
19.11.2023 20:38 10,6 C 9,4 C 6,7 C 97 % 1009,3 hPa 0,0 l/m 0 min 0 min 0 W/m 25,7 km/h (4 Bft) 93,62 %
19.11.2023 20:40 10,6 C 9,4 C 6,7 C 97 % 1009,2 hPa 0,0 l/m 0 min 0 min 0 W/m 25,7 km/h (4 Bft) 95,74 %
19.11.2023 20:42 10,6 C 9,4 C 6,7 C 97 % 1009,2 hPa 0,0 l/m 0 min 0 min 0 W/m 22,5 km/h (4 Bft) 95,74 %
19.11.2023 20:44 10,6 C 9,4 C 6,7 C 97 % 1009,3 hPa 0,0 l/m 0 min 0 min 0 W/m 19,3 km/h (3 Bft) 91,49 %
19.11.2023 20:46 10,6 C 9,4 C 6,7 C 97 % 1009,3 hPa 0,0 l/m 0 min 0 min 0 W/m 16,1 km/h (3 Bft) 97,83 %
19.11.2023 20:48 10,6 C 9,4 C 6,7 C 97 % 1009,3 hPa 0,2 l/m 0 min 0 min 0 W/m 16,1 km/h (3 Bft) 92,68 %
19.11.2023 20:50 10,6 C 9,4 C 6,7 C 97 % 1009,2 hPa 0,0 l/m 0 min 0 min 0 W/m 12,9 km/h (3 Bft) 95,74 %
19.11.2023 20:52 10,6 C 9,4 C 6,7 C 97 % 1009,2 hPa 0,0 l/m 0 min 2 min 0 W/m 32,2 km/h (5 Bft) 97,87 %
19.11.2023 20:54 10,6 C 9,4 C 6,7 C 97 % 1009,2 hPa 0,0 l/m 0 min 2 min 0 W/m 19,3 km/h (3 Bft) 100,00 %
19.11.2023 20:56 10,6 C 9,4 C 6,7 C 97 % 1009,3 hPa 0,0 l/m 0 min 2 min 0 W/m 29,0 km/h (5 Bft) 100,00 %
19.11.2023 20:58 10,6 C 9,4 C 6,7 C 97 % 1009,2 hPa 0,0 l/m 0 min 2 min 0 W/m 32,2 km/h (5 Bft) 97,87 %
19.11.2023 21:00 10,6 C 9,4 C 6,7 C 97 % 1009,3 hPa 0,2 l/m 0 min 2 min 0 W/m 16,1 km/h (3 Bft) 100,00 %
19.11.2023 21:02 10,6 C 9,4 C 6,7 C 97 % 1009,2 hPa 0,0 l/m 0 min 2 min 0 W/m 12,9 km/h (3 Bft) 97,83 %
19.11.2023 21:04 10,6 C 9,4 C 6,7 C 97 % 1009,2 hPa 0,0 l/m 0 min 2 min 0 W/m 22,5 km/h (4 Bft) 100,00 %
19.11.2023 21:08 10,6 C 9,4 C 6,7 C 97 % 1009,2 hPa 0,0 l/m 0 min 0 min 0 W/m 25,7 km/h (4 Bft) 100,00 %
19.11.2023 21:09 10,6 C 9,4 C 6,7 C 97 % 1009,1 hPa 0,0 l/m 0 min 0 min 0 W/m 25,7 km/h (4 Bft) 95,65 %
19.11.2023 21:10 10,6 C 9,4 C 6,7 C 97 % 1009,1 hPa 0,0 l/m 0 min 0 min 0 W/m 25,7 km/h (4 Bft) 100,00 %
19.11.2023 21:14 10,6 C 9,4 C 6,7 C 97 % 1009,2 hPa 0,2 l/m 0 min 0 min 0 W/m 32,2 km/h (5 Bft) 100,00 %
19.11.2023 21:16 10,6 C 9,4 C 6,7 C 97 % 1009,2 hPa 0,0 l/m 0 min 0 min 0 W/m 19,3 km/h (3 Bft) 100,00 %
19.11.2023 21:18 10,6 C 9,4 C 7,2 C 97 % 1009,2 hPa 0,0 l/m 0 min 0 min 0 W/m 22,5 km/h (4 Bft) 100,00 %
19.11.2023 21:20 10,6 C 9,4 C 7,2 C 97 % 1009,2 hPa 0,0 l/m 0 min 0 min 0 W/m 19,3 km/h (3 Bft) 100,00 %
19.11.2023 21:22 10,6 C 9,4 C 7,2 C 97 % 1009,2 hPa 0,0 l/m 0 min 0 min 0 W/m 35,4 km/h (5 Bft) 100,00 %
19.11.2023 21:24 10,6 C 9,4 C 7,2 C 97 % 1009,3 hPa 0,0 l/m 0 min 0 min 0 W/m 19,3 km/h (3 Bft) 100,00 %
19.11.2023 21:26 10,6 C 9,4 C 7,2 C 97 % 1009,2 hPa 0,0 l/m 0 min 0 min 0 W/m 12,9 km/h (3 Bft) 100,00 %
19.11.2023 21:28 10,6 C 9,4 C 7,2 C 97 % 1009,3 hPa 0,0 l/m 0 min 0 min 0 W/m 25,7 km/h (4 Bft) 100,00 %
19.11.2023 21:30 10,6 C 9,4 C 7,2 C 97 % 1009,3 hPa 0,0 l/m 0 min 0 min 0 W/m 19,3 km/h (3 Bft) 100,00 %
19.11.2023 21:32 10,6 C 9,4 C 7,2 C 97 % 1009,3 hPa 0,0 l/m 0 min 0 min 0 W/m 12,9 km/h (3 Bft) 100,00 %
19.11.2023 21:34 10,6 C 9,4 C 7,2 C 97 % 1009,4 hPa 0,0 l/m 0 min 0 min 0 W/m 19,3 km/h (3 Bft) 70,21 %
19.11.2023 21:36 10,6 C 9,4 C 7,2 C 97 % 1009,3 hPa 0,0 l/m 0 min 0 min 0 W/m 25,7 km/h (4 Bft) 79,41 %
19.11.2023 21:38 10,6 C 9,4 C 7,2 C 97 % 1009,4 hPa 0,0 l/m 0 min 0 min 0 W/m 22,5 km/h (4 Bft) 100,00 %
19.11.2023 21:40 10,6 C 9,4 C 7,2 C 97 % 1009,3 hPa 0,0 l/m 0 min 0 min 0 W/m 22,5 km/h (4 Bft) 100,00 %
19.11.2023 21:42 10,6 C 9,4 C 7,2 C 97 % 1009,3 hPa 0,0 l/m 0 min 0 min 0 W/m 16,1 km/h (3 Bft) 100,00 %
19.11.2023 21:44 10,6 C 9,4 C 7,2 C 98 % 1009,4 hPa 0,0 l/m 0 min 0 min 0 W/m 16,1 km/h (3 Bft) 100,00 %
19.11.2023 21:46 10,6 C 9,4 C 7,2 C 98 % 1009,4 hPa 0,0 l/m 0 min 0 min 0 W/m 19,3 km/h (3 Bft) 100,00 %
19.11.2023 21:48 10,6 C 10,0 C 7,2 C 98 % 1009,4 hPa 0,0 l/m 0 min 0 min 0 W/m 22,5 km/h (4 Bft) 97,87 %
19.11.2023 21:50 10,6 C 10,0 C 7,2 C 98 % 1009,4 hPa 0,0 l/m 0 min 2 min 0 W/m 22,5 km/h (4 Bft) 100,00 %
19.11.2023 21:52 10,6 C 10,0 C 7,2 C 98 % 1009,4 hPa 0,0 l/m 0 min 0 min 0 W/m 22,5 km/h (4 Bft) 100,00 %
19.11.2023 21:54 10,6 C 10,0 C 7,2 C 98 % 1009,4 hPa 0,0 l/m 0 min 2 min 0 W/m 19,3 km/h (3 Bft) 100,00 %
19.11.2023 21:56 10,6 C 10,0 C 7,2 C 98 % 1009,4 hPa 0,0 l/m 0 min 2 min 0 W/m 16,1 km/h (3 Bft) 100,00 %
19.11.2023 21:58 10,6 C 10,0 C 7,2 C 98 % 1009,3 hPa 0,0 l/m 0 min 2 min 0 W/m 16,1 km/h (3 Bft) 100,00 %
19.11.2023 22:00 10,6 C 10,0 C 7,2 C 98 % 1009,4 hPa 0,0 l/m 0 min 2 min 0 W/m 25,7 km/h (4 Bft) 100,00 %
19.11.2023 22:02 10,6 C 10,0 C 7,2 C 98 % 1009,4 hPa 0,0 l/m 0 min 2 min 0 W/m 12,9 km/h (3 Bft) 97,87 %
19.11.2023 22:04 10,6 C 10,0 C 7,2 C 98 % 1009,5 hPa 0,0 l/m 0 min 0 min 0 W/m 25,7 km/h (4 Bft) 100,00 %
19.11.2023 22:06 10,6 C 10,0 C 7,2 C 98 % 1009,5 hPa 0,0 l/m 0 min 0 min 0 W/m 16,1 km/h (3 Bft) 100,00 %
19.11.2023 22:08 10,6 C 10,0 C 7,2 C 98 % 1009,5 hPa 0,0 l/m 0 min 0 min 0 W/m 22,5 km/h (4 Bft) 97,87 %
19.11.2023 22:10 10,6 C 10,0 C 7,2 C 98 % 1009,4 hPa 0,0 l/m 0 min 0 min 0 W/m 32,2 km/h (5 Bft) 97,83 %
19.11.2023 22:12 10,7 C 10,0 C 7,2 C 98 % 1009,5 hPa 0,0 l/m 0 min 2 min 0 W/m 25,7 km/h (4 Bft) 93,62 %
19.11.2023 22:14 10,7 C 10,0 C 7,2 C 98 % 1009,6 hPa 0,2 l/m 0 min 2 min 0 W/m 19,3 km/h (3 Bft) 97,87 %
19.11.2023 22:16 10,6 C 10,0 C 7,2 C 98 % 1009,7 hPa 0,0 l/m 0 min 0 min 0 W/m 22,5 km/h (4 Bft) 95,74 %
19.11.2023 22:18 10,7 C 10,0 C 7,2 C 98 % 1009,5 hPa 0,0 l/m 0 min 0 min 0 W/m 32,2 km/h (5 Bft) 97,87 %
19.11.2023 22:20 10,6 C 10,0 C 7,2 C 98 % 1009,6 hPa 0,0 l/m 0 min 0 min 0 W/m 29,0 km/h (5 Bft) 97,87 %
19.11.2023 22:22 10,7 C 10,0 C 7,2 C 98 % 1009,5 hPa 0,0 l/m 0 min 0 min 0 W/m 19,3 km/h (3 Bft) 97,87 %
19.11.2023 22:24 10,7 C 10,0 C 7,2 C 98 % 1009,5 hPa 0,0 l/m 0 min 0 min 0 W/m 29,0 km/h (5 Bft) 97,83 %
19.11.2023 22:26 10,7 C 10,0 C 7,2 C 98 % 1009,4 hPa 0,0 l/m 0 min 0 min 0 W/m 29,0 km/h (5 Bft) 97,87 %
19.11.2023 22:28 10,7 C 10,0 C 7,2 C 98 % 1009,5 hPa 0,0 l/m 0 min 0 min 0 W/m 51,5 km/h (7 Bft) 97,87 %
19.11.2023 22:30 10,7 C 10,0 C 7,2 C 98 % 1009,5 hPa 0,0 l/m 0 min 0 min 0 W/m 32,2 km/h (5 Bft) 95,74 %
19.11.2023 22:32 10,7 C 10,0 C 7,2 C 98 % 1009,6 hPa 0,0 l/m 0 min 0 min 0 W/m 35,4 km/h (5 Bft) 97,87 %
19.11.2023 22:34 10,7 C 10,0 C 7,2 C 98 % 1009,4 hPa 0,0 l/m 0 min 0 min 0 W/m 22,5 km/h (4 Bft) 97,87 %
19.11.2023 22:36 10,7 C 10,0 C 7,2 C 98 % 1009,4 hPa 0,0 l/m 0 min 0 min 0 W/m 22,5 km/h (4 Bft) 97,83 %
19.11.2023 22:38 10,7 C 10,0 C 7,2 C 98 % 1009,4 hPa 0,0 l/m 0 min 0 min 0 W/m 19,3 km/h (3 Bft) 95,74 %
19.11.2023 22:40 10,7 C 10,0 C 7,2 C 98 % 1009,4 hPa 0,0 l/m 0 min 0 min 0 W/m 22,5 km/h (4 Bft) 97,87 %
19.11.2023 22:42 10,7 C 10,0 C 7,2 C 98 % 1009,4 hPa 0,0 l/m 0 min 0 min 0 W/m 19,3 km/h (3 Bft) 100,00 %
19.11.2023 22:44 10,7 C 10,0 C 7,2 C 98 % 1009,5 hPa 0,0 l/m 0 min 0 min 0 W/m 22,5 km/h (4 Bft) 100,00 %
19.11.2023 22:46 10,7 C 10,0 C 7,2 C 98 % 1009,5 hPa 0,0 l/m 0 min 0 min 0 W/m 22,5 km/h (4 Bft) 97,87 %
19.11.2023 22:48 10,7 C 10,0 C 7,2 C 98 % 1009,5 hPa 0,0 l/m 0 min 0 min 0 W/m 19,3 km/h (3 Bft) 95,74 %
19.11.2023 22:50 10,7 C 10,0 C 7,2 C 98 % 1009,6 hPa 0,0 l/m 0 min 0 min 0 W/m 22,5 km/h (4 Bft) 95,74 %
19.11.2023 22:52 10,7 C 10,0 C 7,2 C 98 % 1009,5 hPa 0,0 l/m 0 min 0 min 0 W/m 22,5 km/h (4 Bft) 93,48 %
19.11.2023 22:54 10,7 C 10,0 C 7,2 C 98 % 1009,5 hPa 0,0 l/m 0 min 0 min 0 W/m 19,3 km/h (3 Bft) 95,74 %
19.11.2023 22:56 10,7 C 10,0 C 7,2 C 98 % 1009,4 hPa 0,0 l/m 0 min 0 min 0 W/m 12,9 km/h (3 Bft) 95,74 %
19.11.2023 22:58 10,7 C 10,0 C 7,2 C 98 % 1009,5 hPa 0,0 l/m 0 min 0 min 0 W/m 22,5 km/h (4 Bft) 93,33 %
19.11.2023 23:00 10,7 C 10,0 C 7,2 C 98 % 1009,5 hPa 0,0 l/m 0 min 0 min 0 W/m 9,7 km/h (2 Bft) 95,74 %
19.11.2023 23:02 10,7 C 10,0 C 7,2 C 98 % 1009,5 hPa 0,0 l/m 0 min 0 min 0 W/m 12,9 km/h (3 Bft) 95,74 %
19.11.2023 23:04 10,7 C 10,0 C 7,2 C 98 % 1009,5 hPa 0,0 l/m 0 min 0 min 0 W/m 22,5 km/h (4 Bft) 94,00 %
19.11.2023 23:08 10,7 C 10,0 C 7,2 C 98 % 1009,5 hPa 0,0 l/m 0 min 0 min 0 W/m 29,0 km/h (5 Bft) 94,79 %
19.11.2023 23:10 10,7 C 10,0 C 7,2 C 98 % 1009,6 hPa 0,0 l/m 0 min 0 min 0 W/m 25,7 km/h (4 Bft) 94,29 %
19.11.2023 23:12 10,8 C 10,0 C 7,2 C 98 % 1009,6 hPa 0,0 l/m 0 min 0 min 0 W/m 12,9 km/h (3 Bft) 95,74 %
19.11.2023 23:14 10,8 C 10,0 C 7,2 C 98 % 1009,6 hPa 0,0 l/m 0 min 0 min 0 W/m 16,1 km/h (3 Bft) 95,74 %
19.11.2023 23:16 10,8 C 10,0 C 7,2 C 98 % 1009,7 hPa 0,0 l/m 0 min 0 min 0 W/m 25,7 km/h (4 Bft) 93,62 %
19.11.2023 23:18 10,8 C 10,0 C 7,2 C 97 % 1009,6 hPa 0,0 l/m 0 min 0 min 0 W/m 19,3 km/h (3 Bft) 95,74 %
19.11.2023 23:20 10,8 C 10,0 C 7,2 C 97 % 1009,7 hPa 0,0 l/m 0 min 0 min 0 W/m 19,3 km/h (3 Bft) 95,65 %
19.11.2023 23:22 10,8 C 10,0 C 7,2 C 97 % 1009,7 hPa 0,0 l/m 0 min 0 min 0 W/m 19,3 km/h (3 Bft) 93,62 %
19.11.2023 23:24 10,8 C 10,0 C 7,2 C 97 % 1009,7 hPa 0,0 l/m 0 min 0 min 0 W/m 22,5 km/h (4 Bft) 95,74 %
19.11.2023 23:26 10,8 C 10,6 C 7,2 C 97 % 1009,7 hPa 0,0 l/m 0 min 0 min 0 W/m 16,1 km/h (3 Bft) 91,49 %
19.11.2023 23:28 10,8 C 10,0 C 7,2 C 97 % 1009,7 hPa 0,0 l/m 0 min 0 min 0 W/m 19,3 km/h (3 Bft) 95,74 %
19.11.2023 23:30 10,8 C 10,6 C 7,2 C 97 % 1009,7 hPa 0,0 l/m 0 min 0 min 0 W/m 25,7 km/h (4 Bft) 97,87 %
19.11.2023 23:32 10,8 C 10,6 C 7,2 C 97 % 1009,7 hPa 0,0 l/m 0 min 0 min 0 W/m 22,5 km/h (4 Bft) 97,83 %
19.11.2023 23:34 10,8 C 10,6 C 7,2 C 97 % 1009,8 hPa 0,0 l/m 0 min 0 min 0 W/m 25,7 km/h (4 Bft) 97,87 %
19.11.2023 23:36 10,9 C 10,6 C 7,2 C 97 % 1009,7 hPa 0,0 l/m 0 min 0 min 0 W/m 19,3 km/h (3 Bft) 97,87 %
19.11.2023 23:38 10,9 C 10,6 C 7,2 C 97 % 1009,8 hPa 0,0 l/m 0 min 0 min 0 W/m 22,5 km/h (4 Bft) 100,00 %
19.11.2023 23:40 10,9 C 10,0 C 7,2 C 97 % 1009,7 hPa 0,0 l/m 0 min 0 min 0 W/m 16,1 km/h (3 Bft) 97,87 %
19.11.2023 23:42 10,9 C 10,0 C 7,2 C 97 % 1009,7 hPa 0,0 l/m 0 min 2 min 0 W/m 22,5 km/h (4 Bft) 96,30 %
19.11.2023 23:44 10,9 C 10,0 C 7,2 C 97 % 1009,8 hPa 0,0 l/m 0 min 2 min 0 W/m 16,1 km/h (3 Bft) 100,00 %
19.11.2023 23:46 10,9 C 10,0 C 7,2 C 97 % 1009,7 hPa 0,0 l/m 0 min 2 min 0 W/m 19,3 km/h (3 Bft) 100,00 %
19.11.2023 23:48 10,9 C 10,0 C 7,2 C 97 % 1009,7 hPa 0,0 l/m 0 min 2 min 0 W/m 12,9 km/h (3 Bft) 100,00 %
19.11.2023 23:50 10,9 C 10,0 C 7,2 C 97 % 1009,7 hPa 0,0 l/m 0 min 2 min 0 W/m 19,3 km/h (3 Bft) 100,00 %
19.11.2023 23:52 10,9 C 10,0 C 7,2 C 97 % 1009,7 hPa 0,0 l/m 0 min 0 min 0 W/m 22,5 km/h (4 Bft) 97,87 %
19.11.2023 23:54 10,9 C 10,0 C 7,2 C 97 % 1009,6 hPa 0,0 l/m 0 min 0 min 0 W/m 16,1 km/h (3 Bft) 100,00 %
19.11.2023 23:56 10,9 C 10,0 C 7,2 C 97 % 1009,7 hPa 0,0 l/m 0 min 0 min 0 W/m 22,5 km/h (4 Bft) 100,00 %
19.11.2023 23:58 10,8 C 10,0 C 7,2 C 97 % 1009,7 hPa 0,0 l/m 0 min 0 min 0 W/m 32,2 km/h (5 Bft) 100,00 %
_ Min-Zeit 20:26 20:14 15:44 13:12 04:10 - - - - 02:08 19:44
Minimum _ 10,6 C 9,4 C 6,7 C 82 % 1009,0 hPa - - - - 3,2 km/h (1 Bft) 35,71 %
_ Max-Zeit 13:14 13:08 11:02 00:00 00:00 01:50 10:08 00:10 13:54 22:28 00:02
Maximum _ 13,7 C 16,1 C 10,0 C 100 % 1010,8 hPa 0,6 l/m 4 min 5 min 279 W/m 51,5 km/h
O (7 Bft)
100,00 %
Durchschnitt _ 11,8 C 11,2 C 8,2 C 94 % 1009,8 hPa #5,0 l/m #2:20 h #4:34 h 86 W/m 20,4 km/h (4 Bft) 97,27 %
© 2023 W. Hausmann